Observation data for Segovia 7SSW on 11/16/2019      Previous  Date       Current Mesonet Observations  Soil Data  Daily Summary Page  Observations in Plain Language
KSE2 160600Z 18004KT 05/01 A3027 RMK A01 T00510006  RH  073%=      5-min Rain = 0
KSE2 160601Z 18004KT 05/01 A3027 RMK A01 T00510006  RH  073%=      5-min Rain = 0
KSE2 160602Z 18004KT 05/01 A3027 RMK A01 T00510005  RH  073%=      5-min Rain = 0
KSE2 160603Z 18004KT 05/01 A3027 RMK A01 T00500005  RH  073%=      5-min Rain = 0
KSE2 160604Z 18004KT 05/01 A3027 RMK A01 T00500005  RH  073%=      5-min Rain = 0
KSE2 160605Z 18004KT 05/01 A3027 RMK A01 T00490005  RH  073%=      5-min Rain = 0
KSE2 160606Z 18004KT 05/01 A3027 RMK A01 T00490005  RH  073%=      5-min Rain = 0
KSE2 160607Z 19004KT 05/01 A3027 RMK A01 T00480005  RH  073%=      5-min Rain = 0
KSE2 160608Z 19004KT 05/01 A3027 RMK A01 T00490005  RH  074%=      5-min Rain = 0
KSE2 160609Z 19004KT 05/01 A3027 RMK A01 T00480005  RH  074%=      5-min Rain = 0
KSE2 160610Z 19004KT 05/01 A3027 RMK A01 T00480006  RH  074%=      5-min Rain = 0
KSE2 160611Z 19004KT 05/01 A3027 RMK A01 T00480005  RH  074%=      5-min Rain = 0
KSE2 160612Z 19004KT 05/01 A3027 RMK A01 T00480005  RH  074%=      5-min Rain = 0
KSE2 160613Z 19005KT 05/01 A3027 RMK A01 T00480005  RH  074%=      5-min Rain = 0
KSE2 160614Z 19005KT 05/01 A3027 RMK A01 T00470005  RH  074%=      5-min Rain = 0
KSE2 160615Z 19004KT 05/01 A3027 RMK A01 T00470005  RH  074%=      5-min Rain = 0
KSE2 160616Z 18004KT 05/01 A3027 RMK A01 T00470005  RH  074%=      5-min Rain = 0
KSE2 160617Z 19004KT 05/01 A3027 RMK A01 T00470006  RH  074%=      5-min Rain = 0
KSE2 160618Z 19004KT 05/01 A3027 RMK A01 T00470005  RH  074%=      5-min Rain = 0
KSE2 160619Z 19005KT 05/01 A3027 RMK A01 T00470005  RH  074%=      5-min Rain = 0
KSE2 160620Z 19005KT 05/01 A3027 RMK A01 T00470005  RH  074%=      5-min Rain = 0
KSE2 160621Z 19005KT 05/01 A3027 RMK A01 T00470005  RH  075%=      5-min Rain = 0
KSE2 160622Z 18004KT 05/01 A3027 RMK A01 T00470005  RH  075%=      5-min Rain = 0
KSE2 160623Z 17004KT 05/01 A3027 RMK A01 T00470006  RH  075%=      5-min Rain = 0
KSE2 160624Z 16005KT 05/01 A3026 RMK A01 T00470005  RH  075%=      5-min Rain = 0
KSE2 160625Z 15004KT 05/01 A3026 RMK A01 T00460005  RH  075%=      5-min Rain = 0
KSE2 160626Z 15005KT 05/00 A3026 RMK A01 T00450004  RH  075%=      5-min Rain = 0
KSE2 160627Z 16005KT 04/00 A3026 RMK A01 T00440003  RH  075%=      5-min Rain = 0
KSE2 160628Z 16005KT 04/00 A3026 RMK A01 T00430004  RH  075%=      5-min Rain = 0
KSE2 160629Z 17005KT 04/00 A3026 RMK A01 T00430004  RH  076%=      5-min Rain = 0
KSE2 160630Z 18004KT 04/00 A3026 RMK A01 T00430004  RH  076%=      5-min Rain = 0
KSE2 160631Z 18004KT 04/00 A3026 RMK A01 T00430004  RH  076%=      5-min Rain = 0
KSE2 160632Z 18004KT 04/00 A3026 RMK A01 T00440004  RH  076%=      5-min Rain = 0
KSE2 160633Z 18005KT 04/00 A3026 RMK A01 T00430004  RH  076%=      5-min Rain = 0
KSE2 160634Z 18005KT 04/00 A3026 RMK A01 T00440004  RH  075%=      5-min Rain = 0
KSE2 160635Z 18004KT 04/00 A3026 RMK A01 T00430004  RH  075%=      5-min Rain = 0
KSE2 160636Z 18004KT 04/00 A3026 RMK A01 T00430004  RH  075%=      5-min Rain = 0
KSE2 160637Z 18004KT 04/00 A3026 RMK A01 T00440004  RH  075%=      5-min Rain = 0
KSE2 160638Z 18004KT 04/00 A3026 RMK A01 T00440004  RH  075%=      5-min Rain = 0
KSE2 160639Z 18004KT 05/01 A3026 RMK A01 T00450005  RH  075%=      5-min Rain = 0
KSE2 160640Z 18004KT 05/01 A3026 RMK A01 T00450005  RH  075%=      5-min Rain = 0
KSE2 160641Z 18004KT 05/00 A3026 RMK A01 T00450004  RH  075%=      5-min Rain = 0
KSE2 160642Z 18004KT 05/00 A3026 RMK A01 T00450004  RH  075%=      5-min Rain = 0
KSE2 160643Z 18004KT 05/00 A3026 RMK A01 T00450004  RH  075%=      5-min Rain = 0
KSE2 160644Z 18004KT 05/00 A3026 RMK A01 T00450004  RH  075%=      5-min Rain = 0
KSE2 160645Z 18004KT 05/00 A3026 RMK A01 T00450004  RH  075%=      5-min Rain = 0
KSE2 160646Z 18004KT 05/00 A3026 RMK A01 T00450004  RH  075%=      5-min Rain = 0
KSE2 160647Z 19003KT 05/00 A3026 RMK A01 T00450004  RH  075%=      5-min Rain = 0
KSE2 160648Z 18003KT 05/00 A3026 RMK A01 T00450004  RH  075%=      5-min Rain = 0
KSE2 160649Z 18003KT 05/00 A3026 RMK A01 T00450004  RH  075%=      5-min Rain = 0
KSE2 160650Z 18003KT 05/00 A3026 RMK A01 T00450004  RH  075%=      5-min Rain = 0
KSE2 160651Z 18003KT 05/00 A3026 RMK A01 T00450004  RH  075%=      5-min Rain = 0
KSE2 160652Z 18003KT 05/00 A3026 RMK A01 T00450004  RH  075%=      5-min Rain = 0
KSE2 160653Z 18003KT 05/00 A3026 RMK A01 T00450004  RH  075%=      5-min Rain = 0
KSE2 160654Z 18003KT 05/00 A3025 RMK A01 T00450004  RH  075%=      5-min Rain = 0
KSE2 160655Z 18003KT 05/00 A3025 RMK A01 T00450004  RH  075%=      5-min Rain = 0
KSE2 160656Z 18003KT 05/00 A3025 RMK A01 T00450004  RH  075%=      5-min Rain = 0
KSE2 160657Z 18003KT 05/01 A3025 RMK A01 T00460005  RH  075%=      5-min Rain = 0
KSE2 160658Z 18004KT 05/00 A3025 RMK A01 T00460004  RH  074%=      5-min Rain = 0
KSE2 160659Z 18004KT 05/01 A3025 RMK A01 T00460005  RH  074%=      5-min Rain = 0
KSE2 160700Z 18004KT 05/00 A3025 RMK A01 T00460004  RH  074%=      5-min Rain = 0
KSE2 160701Z 18004KT 05/01 A3025 RMK A01 T00460005  RH  075%=      5-min Rain = 0
KSE2 160702Z 18004KT 05/00 A3025 RMK A01 T00450004  RH  075%=      5-min Rain = 0
KSE2 160703Z 18004KT 05/00 A3025 RMK A01 T00450004  RH  075%=      5-min Rain = 0
KSE2 160704Z 18003KT 05/00 A3025 RMK A01 T00450004  RH  075%=      5-min Rain = 0
KSE2 160705Z 18003KT 05/00 A3025 RMK A01 T00450004  RH  075%=      5-min Rain = 0
KSE2 160706Z 18003KT 05/00 A3025 RMK A01 T00450004  RH  075%=      5-min Rain = 0
KSE2 160707Z 19003KT 05/01 A3025 RMK A01 T00450005  RH  075%=      5-min Rain = 0
KSE2 160708Z 19003KT 05/01 A3025 RMK A01 T00450005  RH  075%=      5-min Rain = 0
KSE2 160709Z 19003KT 05/00 A3025 RMK A01 T00450004  RH  075%=      5-min Rain = 0
KSE2 160710Z 19003KT 05/00 A3025 RMK A01 T00450004  RH  075%=      5-min Rain = 0
KSE2 160711Z 19004KT 05/01 A3025 RMK A01 T00460005  RH  075%=      5-min Rain = 0
KSE2 160712Z 19003KT 05/01 A3025 RMK A01 T00460005  RH  075%=      5-min Rain = 0
KSE2 160713Z 19003KT 05/00 A3025 RMK A01 T00460004  RH  075%=      5-min Rain = 0
KSE2 160714Z 19003KT 05/00 A3025 RMK A01 T00460004  RH  074%=      5-min Rain = 0
KSE2 160715Z 20003KT 05/00 A3025 RMK A01 T00460004  RH  074%=      5-min Rain = 0
KSE2 160716Z 19004KT 05/00 A3025 RMK A01 T00470004  RH  074%=      5-min Rain = 0
KSE2 160717Z 20003KT 05/00 A3025 RMK A01 T00470004  RH  074%=      5-min Rain = 0
KSE2 160718Z 20003KT 05/01 A3025 RMK A01 T00480005  RH  074%=      5-min Rain = 0
KSE2 160719Z 20004KT 05/00 A3025 RMK A01 T00480004  RH  073%=      5-min Rain = 0
KSE2 160720Z 20004KT 05/01 A3025 RMK A01 T00490005  RH  073%=      5-min Rain = 0
KSE2 160721Z 20004KT 05/01 A3025 RMK A01 T00490005  RH  073%=      5-min Rain = 0
KSE2 160722Z 19004KT 05/00 A3025 RMK A01 T00480004  RH  073%=      5-min Rain = 0
KSE2 160723Z 19004KT 05/00 A3025 RMK A01 T00480004  RH  073%=      5-min Rain = 0
KSE2 160724Z 19004KT 05/00 A3025 RMK A01 T00490004  RH  073%=      5-min Rain = 0
KSE2 160725Z 19004KT 05/00 A3025 RMK A01 T00480004  RH  073%=      5-min Rain = 0
KSE2 160726Z 20004KT 05/00 A3025 RMK A01 T00490004  RH  073%=      5-min Rain = 0
KSE2 160727Z 20004KT 05/00 A3025 RMK A01 T00480004  RH  073%=      5-min Rain = 0
KSE2 160728Z 20004KT 05/00 A3025 RMK A01 T00480004  RH  073%=      5-min Rain = 0
KSE2 160729Z 20004KT 05/00 A3025 RMK A01 T00490004  RH  073%=      5-min Rain = 0
KSE2 160730Z 20004KT 05/00 A3025 RMK A01 T00490004  RH  073%=      5-min Rain = 0
KSE2 160731Z 20004KT 05/00 A3025 RMK A01 T00490004  RH  073%=      5-min Rain = 0
KSE2 160732Z 19004KT 05/00 A3025 RMK A01 T00490004  RH  073%=      5-min Rain = 0
KSE2 160733Z 19004KT 05/00 A3025 RMK A01 T00480004  RH  073%=      5-min Rain = 0
KSE2 160734Z 19004KT 05/00 A3024 RMK A01 T00480004  RH  073%=      5-min Rain = 0
KSE2 160735Z 20004KT 05/00 A3024 RMK A01 T00480003  RH  073%=      5-min Rain = 0
KSE2 160736Z 20004KT 05/00 A3024 RMK A01 T00480003  RH  073%=      5-min Rain = 0
KSE2 160737Z 20004KT 05/00 A3024 RMK A01 T00480003  RH  073%=      5-min Rain = 0
KSE2 160738Z 20004KT 05/00 A3024 RMK A01 T00480003  RH  073%=      5-min Rain = 0
KSE2 160739Z 20004KT 05/00 A3024 RMK A01 T00480003  RH  073%=      5-min Rain = 0
KSE2 160740Z 20005KT 05/00 A3024 RMK A01 T00480003  RH  073%=      5-min Rain = 0
KSE2 160741Z 20005KT 05/00 A3024 RMK A01 T00480003  RH  073%=      5-min Rain = 0
KSE2 160742Z 20005KT 05/00 A3024 RMK A01 T00480003  RH  073%=      5-min Rain = 0
KSE2 160743Z 19005KT 05/00 A3024 RMK A01 T00480003  RH  073%=      5-min Rain = 0
KSE2 160744Z 19005KT 05/00 A3024 RMK A01 T00480003  RH  073%=      5-min Rain = 0
KSE2 160745Z 19005KT 05/00 A3024 RMK A01 T00480003  RH  073%=      5-min Rain = 0
KSE2 160746Z 19005KT 05/00 A3024 RMK A01 T00470003  RH  073%=      5-min Rain = 0
KSE2 160747Z 19005KT 05/00 A3024 RMK A01 T00480003  RH  073%=      5-min Rain = 0
KSE2 160748Z 19006KT 05/00 A3024 RMK A01 T00470003  RH  073%=      5-min Rain = 0
KSE2 160749Z 20006KT 05/00 A3024 RMK A01 T00470002  RH  073%=      5-min Rain = 0
KSE2 160750Z 19006KT 05/00 A3024 RMK A01 T00470002  RH  073%=      5-min Rain = 0
KSE2 160751Z 19005KT 05/00 A3024 RMK A01 T00470002  RH  072%=      5-min Rain = 0
KSE2 160752Z 20005KT 05/00 A3024 RMK A01 T00470002  RH  072%=      5-min Rain = 0
KSE2 160753Z 19005KT 05/00 A3024 RMK A01 T00470002  RH  072%=      5-min Rain = 0
KSE2 160754Z 19005KT 05/00 A3024 RMK A01 T00470001  RH  072%=      5-min Rain = 0
KSE2 160755Z 19006KT 05/00 A3024 RMK A01 T00480001  RH  072%=      5-min Rain = 0
KSE2 160756Z 19006KT 05/00 A3024 RMK A01 T00480002  RH  072%=      5-min Rain = 0
KSE2 160757Z 18005KT 05/00 A3024 RMK A01 T00480001  RH  072%=      5-min Rain = 0
KSE2 160758Z 18005KT 05/00 A3024 RMK A01 T00470001  RH  072%=      5-min Rain = 0
KSE2 160759Z 18005KT 05/00 A3024 RMK A01 T00460001  RH  072%=      5-min Rain = 0
KSE2 160800Z 19006KT 05/00 A3024 RMK A01 T00460000  RH  072%=      5-min Rain = 0
KSE2 160801Z 19006KT 05/00 A3024 RMK A01 T00450000  RH  073%=      5-min Rain = 0
KSE2 160802Z 19006KT 05/00 A3024 RMK A01 T00450000  RH  073%=      5-min Rain = 0
KSE2 160803Z 19005KT 05/00 A3024 RMK A01 T00450000  RH  073%=      5-min Rain = 0
KSE2 160804Z 19005KT 05/00 A3024 RMK A01 T00450000  RH  073%=      5-min Rain = 0
KSE2 160805Z 19005KT 05/00 A3024 RMK A01 T00450000  RH  073%=      5-min Rain = 0
KSE2 160806Z 19005KT 05/00 A3024 RMK A01 T004500-0  RH  073%=      5-min Rain = 0
KSE2 160807Z 18005KT 05/00 A3024 RMK A01 T004500-0  RH  072%=      5-min Rain = 0
KSE2 160808Z 18005KT 05/00 A3024 RMK A01 T004500-0  RH  072%=      5-min Rain = 0
KSE2 160809Z 18005KT 05/00 A3023 RMK A01 T004500-0  RH  072%=      5-min Rain = 0
KSE2 160810Z 18005KT 05/00 A3023 RMK A01 T004500-0  RH  072%=      5-min Rain = 0
KSE2 160811Z 18005KT 04/M00 A3023 RMK A01 T00441001  RH  073%=      5-min Rain = 0
KSE2 160812Z 18006KT 04/M00 A3023 RMK A01 T00441001  RH  073%=      5-min Rain = 0
KSE2 160813Z 18005KT 04/M00 A3023 RMK A01 T00441001  RH  073%=      5-min Rain = 0
KSE2 160814Z 18005KT 04/M00 A3023 RMK A01 T00441001  RH  073%=      5-min Rain = 0
KSE2 160815Z 18005KT 04/M00 A3023 RMK A01 T00431001  RH  073%=      5-min Rain = 0
KSE2 160816Z 18005KT 04/M00 A3023 RMK A01 T00431001  RH  073%=      5-min Rain = 0
KSE2 160817Z 18006KT 04/M00 A3023 RMK A01 T00431001  RH  073%=      5-min Rain = 0
KSE2 160818Z 18006KT 04/M00 A3023 RMK A01 T00421001  RH  074%=      5-min Rain = 0
KSE2 160819Z 18006KT 04/M00 A3023 RMK A01 T00421001  RH  074%=      5-min Rain = 0
KSE2 160820Z 18006KT 04/M00 A3023 RMK A01 T00411001  RH  074%=      5-min Rain = 0
KSE2 160821Z 18006KT 04/M00 A3023 RMK A01 T00411001  RH  074%=      5-min Rain = 0
KSE2 160822Z 18006KT 04/M00 A3023 RMK A01 T00411001  RH  074%=      5-min Rain = 0
KSE2 160823Z 18006KT 04/M00 A3023 RMK A01 T00411001  RH  074%=      5-min Rain = 0
KSE2 160824Z 18006KT 04/M00 A3023 RMK A01 T00421001  RH  074%=      5-min Rain = 0
KSE2 160825Z 18006KT 04/M00 A3023 RMK A01 T00421001  RH  074%=      5-min Rain = 0
KSE2 160826Z 18006KT 04/M00 A3023 RMK A01 T00421001  RH  074%=      5-min Rain = 0
KSE2 160827Z 18006KT 04/M00 A3023 RMK A01 T00421001  RH  074%=      5-min Rain = 0
KSE2 160828Z 18006KT 04/M00 A3023 RMK A01 T00421001  RH  074%=      5-min Rain = 0
KSE2 160829Z 18006KT 04/M00 A3023 RMK A01 T00431001  RH  073%=      5-min Rain = 0
KSE2 160830Z 18006KT 04/M00 A3023 RMK A01 T00431001  RH  073%=      5-min Rain = 0
KSE2 160831Z 18006KT 04/M00 A3023 RMK A01 T00441001  RH  073%=      5-min Rain = 0
KSE2 160832Z 18006KT 04/M00 A3023 RMK A01 T00431001  RH  073%=      5-min Rain = 0
KSE2 160833Z 18006KT 04/M00 A3023 RMK A01 T00441001  RH  073%=      5-min Rain = 0
KSE2 160834Z 18006KT 04/M00 A3023 RMK A01 T00441001  RH  072%=      5-min Rain = 0
KSE2 160835Z 18007KT 04/M00 A3023 RMK A01 T00441001  RH  072%=      5-min Rain = 0
KSE2 160836Z 18006KT 04/M00 A3023 RMK A01 T00441001  RH  072%=      5-min Rain = 0
KSE2 160837Z 18007KT 04/M00 A3023 RMK A01 T00431001  RH  073%=      5-min Rain = 0
KSE2 160838Z 19006KT 04/M00 A3022 RMK A01 T00431001  RH  073%=      5-min Rain = 0
KSE2 160839Z 19006KT 04/M00 A3022 RMK A01 T00431001  RH  073%=      5-min Rain = 0
KSE2 160840Z 18006KT 04/M00 A3022 RMK A01 T00431001  RH  073%=      5-min Rain = 0
KSE2 160841Z 19006KT 04/M00 A3022 RMK A01 T00421002  RH  073%=      5-min Rain = 0
KSE2 160842Z 19006KT 04/M00 A3022 RMK A01 T00421002  RH  073%=      5-min Rain = 0
KSE2 160843Z 19006KT 04/M00 A3022 RMK A01 T00421002  RH  073%=      5-min Rain = 0
KSE2 160844Z 19006KT 04/M00 A3022 RMK A01 T00421002  RH  073%=      5-min Rain = 0
KSE2 160845Z 19006KT 04/M00 A3022 RMK A01 T00421002  RH  073%=      5-min Rain = 0
KSE2 160846Z 19006KT 04/M00 A3022 RMK A01 T00421002  RH  073%=      5-min Rain = 0
KSE2 160847Z 19006KT 04/M00 A3022 RMK A01 T00421002  RH  073%=      5-min Rain = 0
KSE2 160848Z 19006KT 04/M00 A3022 RMK A01 T00421002  RH  073%=      5-min Rain = 0
KSE2 160849Z 19006KT 04/M00 A3022 RMK A01 T00431002  RH  073%=      5-min Rain = 0
KSE2 160850Z 18006KT 04/M00 A3022 RMK A01 T00431002  RH  073%=      5-min Rain = 0
KSE2 160851Z 19006KT 04/M00 A3022 RMK A01 T00421002  RH  073%=      5-min Rain = 0
KSE2 160852Z 19006KT 04/M00 A3022 RMK A01 T00421002  RH  073%=      5-min Rain = 0
KSE2 160853Z 19006KT 04/M00 A3022 RMK A01 T00421003  RH  073%=      5-min Rain = 0
KSE2 160854Z 18006KT 04/M00 A3022 RMK A01 T00421002  RH  073%=      5-min Rain = 0
KSE2 160855Z 18006KT 04/M00 A3022 RMK A01 T00421002  RH  073%=      5-min Rain = 0
KSE2 160856Z 18006KT 04/M00 A3022 RMK A01 T00411003  RH  073%=      5-min Rain = 0
KSE2 160857Z 18005KT 04/M00 A3022 RMK A01 T00411003  RH  073%=      5-min Rain = 0
KSE2 160858Z 18005KT 04/M00 A3022 RMK A01 T00401003  RH  073%=      5-min Rain = 0
KSE2 160859Z 18005KT 04/M00 A3022 RMK A01 T00401003  RH  073%=      5-min Rain = 0
KSE2 160900Z 18005KT 04/M00 A3022 RMK A01 T00401003  RH  073%=      5-min Rain = 0
KSE2 160901Z 18005KT 04/M00 A3022 RMK A01 T00401003  RH  074%=      5-min Rain = 0
KSE2 160902Z 19005KT 04/M00 A3022 RMK A01 T00391003  RH  074%=      5-min Rain = 0
KSE2 160903Z 19005KT 04/M00 A3022 RMK A01 T00391003  RH  074%=      5-min Rain = 0
KSE2 160904Z 19006KT 04/M00 A3022 RMK A01 T00391003  RH  074%=      5-min Rain = 0
KSE2 160905Z 18006KT 04/M00 A3022 RMK A01 T00391003  RH  074%=      5-min Rain = 0
KSE2 160906Z 19005KT 04/M00 A3022 RMK A01 T00391003  RH  074%=      5-min Rain = 0
KSE2 160907Z 19005KT 04/M00 A3022 RMK A01 T00401003  RH  073%=      5-min Rain = 0
KSE2 160908Z 19005KT 04/M00 A3022 RMK A01 T00411003  RH  073%=      5-min Rain = 0
KSE2 160909Z 19005KT 04/M00 A3022 RMK A01 T00411004  RH  073%=      5-min Rain = 0
KSE2 160910Z 19006KT 04/M00 A3022 RMK A01 T00411004  RH  073%=      5-min Rain = 0
KSE2 160911Z 19006KT 04/M00 A3022 RMK A01 T00411004  RH  073%=      5-min Rain = 0
KSE2 160912Z 19006KT 04/M00 A3022 RMK A01 T00411004  RH  073%=      5-min Rain = 0
KSE2 160913Z 19005KT 04/M00 A3022 RMK A01 T00421004  RH  072%=      5-min Rain = 0
KSE2 160914Z 19006KT 04/M00 A3022 RMK A01 T00421004  RH  072%=      5-min Rain = 0
KSE2 160915Z 19006KT 04/M00 A3022 RMK A01 T00421004  RH  072%=      5-min Rain = 0
KSE2 160916Z 19005KT 04/M00 A3022 RMK A01 T00431004  RH  072%=      5-min Rain = 0
KSE2 160917Z 19005KT 04/M00 A3022 RMK A01 T00431004  RH  072%=      5-min Rain = 0
KSE2 160918Z 19005KT 04/M00 A3022 RMK A01 T00431004  RH  072%=      5-min Rain = 0
KSE2 160919Z 19006KT 04/M00 A3022 RMK A01 T00431004  RH  072%=      5-min Rain = 0
KSE2 160920Z 19006KT 04/M00 A3022 RMK A01 T00431004  RH  071%=      5-min Rain = 0
KSE2 160921Z 19006KT 04/M00 A3022 RMK A01 T00431004  RH  071%=      5-min Rain = 0
KSE2 160922Z 19006KT 04/M00 A3022 RMK A01 T00441004  RH  071%=      5-min Rain = 0
KSE2 160923Z 19006KT 04/M00 A3022 RMK A01 T00441004  RH  071%=      5-min Rain = 0
KSE2 160924Z 19006KT 04/M00 A3022 RMK A01 T00441004  RH  071%=      5-min Rain = 0
KSE2 160925Z 19006KT 04/M00 A3022 RMK A01 T00441004  RH  071%=      5-min Rain = 0
KSE2 160926Z 19006KT 04/M00 A3022 RMK A01 T00441004  RH  071%=      5-min Rain = 0
KSE2 160927Z 19006KT 04/M00 A3022 RMK A01 T00431004  RH  071%=      5-min Rain = 0
KSE2 160928Z 18006KT 04/M00 A3022 RMK A01 T00431004  RH  071%=      5-min Rain = 0
KSE2 160929Z 18006KT 04/M00 A3022 RMK A01 T00431004  RH  072%=      5-min Rain = 0
KSE2 160930Z 18006KT 04/M00 A3022 RMK A01 T00421004  RH  072%=      5-min Rain = 0
KSE2 160931Z 19006KT 04/M00 A3022 RMK A01 T00421004  RH  072%=      5-min Rain = 0
KSE2 160932Z 18006KT 04/M00 A3022 RMK A01 T00421004  RH  072%=      5-min Rain = 0
KSE2 160933Z 19006KT 04/M00 A3022 RMK A01 T00421004  RH  072%=      5-min Rain = 0
KSE2 160934Z 19006KT 04/M00 A3022 RMK A01 T00411004  RH  072%=      5-min Rain = 0
KSE2 160935Z 19006KT 04/M01 A3022 RMK A01 T00411005  RH  072%=      5-min Rain = 0
KSE2 160936Z 19005KT 04/M00 A3022 RMK A01 T00411004  RH  072%=      5-min Rain = 0
KSE2 160937Z 19005KT 04/M00 A3022 RMK A01 T00411004  RH  073%=      5-min Rain = 0
KSE2 160938Z 19005KT 04/M00 A3022 RMK A01 T00401004  RH  073%=      5-min Rain = 0
KSE2 160939Z 19006KT 04/M00 A3022 RMK A01 T00401004  RH  073%=      5-min Rain = 0
KSE2 160940Z 19006KT 04/M00 A3022 RMK A01 T00401004  RH  073%=      5-min Rain = 0
KSE2 160941Z 19005KT 04/M00 A3022 RMK A01 T00401004  RH  073%=      5-min Rain = 0
KSE2 160942Z 19006KT 04/M01 A3022 RMK A01 T00401005  RH  073%=      5-min Rain = 0
KSE2 160943Z 19006KT 04/M00 A3022 RMK A01 T00401004  RH  073%=      5-min Rain = 0
KSE2 160944Z 20006KT 04/M00 A3022 RMK A01 T00401004  RH  073%=      5-min Rain = 0
KSE2 160945Z 20006KT 04/M00 A3022 RMK A01 T00401004  RH  073%=      5-min Rain = 0
KSE2 160946Z 19006KT 04/M00 A3022 RMK A01 T00401004  RH  073%=      5-min Rain = 0
KSE2 160947Z 19006KT 04/M00 A3022 RMK A01 T00401004  RH  073%=      5-min Rain = 0
KSE2 160948Z 19006KT 04/M00 A3022 RMK A01 T00401004  RH  073%=      5-min Rain = 0
KSE2 160949Z 19006KT 04/M00 A3022 RMK A01 T00401004  RH  073%=      5-min Rain = 0
KSE2 160950Z 19006KT 04/M00 A3022 RMK A01 T00401004  RH  073%=      5-min Rain = 0
KSE2 160951Z 20005KT 04/M00 A3022 RMK A01 T00401004  RH  073%=      5-min Rain = 0
KSE2 160952Z 20005KT 04/M00 A3022 RMK A01 T00391004  RH  073%=      5-min Rain = 0
KSE2 160953Z 20005KT 04/M00 A3022 RMK A01 T00391004  RH  073%=      5-min Rain = 0
KSE2 160954Z 20006KT 04/M01 A3022 RMK A01 T00391005  RH  073%=      5-min Rain = 0
KSE2 160955Z 20005KT 04/M01 A3022 RMK A01 T00391005  RH  073%=      5-min Rain = 0
KSE2 160956Z 20005KT 04/M00 A3022 RMK A01 T00401004  RH  073%=      5-min Rain = 0
KSE2 160957Z 20006KT 04/M00 A3022 RMK A01 T00411004  RH  073%=      5-min Rain = 0
KSE2 160958Z 20006KT 04/M00 A3022 RMK A01 T00411004  RH  072%=      5-min Rain = 0
KSE2 160959Z 19006KT 04/M00 A3022 RMK A01 T00411004  RH  072%=      5-min Rain = 0
KSE2 161000Z 19006KT 04/M00 A3022 RMK A01 T00421003  RH  072%=      5-min Rain = 0
KSE2 161001Z 20006KT 04/M00 A3022 RMK A01 T00431003  RH  072%=      5-min Rain = 0
KSE2 161002Z 19005KT 04/M00 A3022 RMK A01 T00431003  RH  072%=      5-min Rain = 0
KSE2 161003Z 19006KT 04/M00 A3022 RMK A01 T00431004  RH  072%=      5-min Rain = 0
KSE2 161004Z 19006KT 04/M00 A3022 RMK A01 T00431003  RH  072%=      5-min Rain = 0
KSE2 161005Z 19006KT 04/M00 A3022 RMK A01 T00431004  RH  072%=      5-min Rain = 0
KSE2 161006Z 19006KT 04/M00 A3022 RMK A01 T00431004  RH  072%=      5-min Rain = 0
KSE2 161007Z 19006KT 04/M00 A3022 RMK A01 T00421004  RH  072%=      5-min Rain = 0
KSE2 161008Z 18006KT 04/M00 A3022 RMK A01 T00421004  RH  072%=      5-min Rain = 0
KSE2 161009Z 18006KT 04/M00 A3022 RMK A01 T00411004  RH  072%=      5-min Rain = 0
KSE2 161010Z 19006KT 04/M00 A3022 RMK A01 T00411004  RH  072%=      5-min Rain = 0
KSE2 161011Z 19005KT 04/M00 A3022 RMK A01 T00411004  RH  072%=      5-min Rain = 0
KSE2 161012Z 19006KT 04/M00 A3022 RMK A01 T00411004  RH  072%=      5-min Rain = 0
KSE2 161013Z 19006KT 04/M00 A3022 RMK A01 T00411004  RH  072%=      5-min Rain = 0
KSE2 161014Z 19006KT 04/M00 A3022 RMK A01 T00411004  RH  072%=      5-min Rain = 0
KSE2 161015Z 19006KT 04/M00 A3021 RMK A01 T00411004  RH  072%=      5-min Rain = 0
KSE2 161016Z 19006KT 04/M00 A3021 RMK A01 T00401004  RH  073%=      5-min Rain = 0
KSE2 161017Z 19006KT 04/M00 A3021 RMK A01 T00401004  RH  073%=      5-min Rain = 0
KSE2 161018Z 18005KT 04/M00 A3021 RMK A01 T00401004  RH  073%=      5-min Rain = 0
KSE2 161019Z 18006KT 04/M00 A3021 RMK A01 T00401004  RH  073%=      5-min Rain = 0
KSE2 161020Z 19005KT 04/M00 A3021 RMK A01 T00391004  RH  073%=      5-min Rain = 0
KSE2 161021Z 19006KT 04/M01 A3021 RMK A01 T00391005  RH  073%=      5-min Rain = 0
KSE2 161022Z 19006KT 04/M01 A3021 RMK A01 T00381005  RH  074%=      5-min Rain = 0
KSE2 161023Z 19006KT 04/M01 A3021 RMK A01 T00381005  RH  074%=      5-min Rain = 0
KSE2 161024Z 19006KT 04/M01 A3021 RMK A01 T00381005  RH  074%=      5-min Rain = 0
KSE2 161025Z 19006KT 04/M00 A3021 RMK A01 T00381004  RH  074%=      5-min Rain = 0
KSE2 161026Z 19006KT 04/M01 A3021 RMK A01 T00381005  RH  074%=      5-min Rain = 0
KSE2 161027Z 19006KT 04/M01 A3021 RMK A01 T00381005  RH  074%=      5-min Rain = 0
KSE2 161028Z 19006KT 04/M01 A3021 RMK A01 T00381005  RH  074%=      5-min Rain = 0
KSE2 161029Z 19006KT 04/M01 A3021 RMK A01 T00371005  RH  074%=      5-min Rain = 0
KSE2 161030Z 19006KT 04/M00 A3021 RMK A01 T00381004  RH  074%=      5-min Rain = 0
KSE2 161031Z 18006KT 04/M00 A3021 RMK A01 T00381004  RH  074%=      5-min Rain = 0
KSE2 161032Z 18005KT 04/M01 A3021 RMK A01 T00381005  RH  074%=      5-min Rain = 0
KSE2 161033Z 18006KT 04/M00 A3021 RMK A01 T00381004  RH  074%=      5-min Rain = 0
KSE2 161034Z 18006KT 04/M01 A3021 RMK A01 T00381005  RH  074%=      5-min Rain = 0
KSE2 161035Z 19006KT 04/M00 A3021 RMK A01 T00381004  RH  074%=      5-min Rain = 0
KSE2 161036Z 19006KT 04/M00 A3021 RMK A01 T00381004  RH  074%=      5-min Rain = 0
KSE2 161037Z 19006KT 04/M01 A3021 RMK A01 T00381005  RH  074%=      5-min Rain = 0
KSE2 161038Z 18006KT 04/M00 A3021 RMK A01 T00381004  RH  074%=      5-min Rain = 0
KSE2 161039Z 18005KT 04/M01 A3021 RMK A01 T00371005  RH  074%=      5-min Rain = 0
KSE2 161040Z 18006KT 04/M01 A3021 RMK A01 T00381005  RH  074%=      5-min Rain = 0
KSE2 161041Z 18006KT 04/M01 A3021 RMK A01 T00381005  RH  074%=      5-min Rain = 0
KSE2 161042Z 18006KT 04/M01 A3021 RMK A01 T00381005  RH  074%=      5-min Rain = 0
KSE2 161043Z 19006KT 04/M01 A3021 RMK A01 T00371005  RH  074%=      5-min Rain = 0
KSE2 161044Z 18006KT 04/M01 A3021 RMK A01 T00371005  RH  074%=      5-min Rain = 0
KSE2 161045Z 19005KT 04/M01 A3021 RMK A01 T00371005  RH  074%=      5-min Rain = 0
KSE2 161046Z 18005KT 04/M01 A3021 RMK A01 T00371005  RH  074%=      5-min Rain = 0
KSE2 161047Z 19006KT 04/M01 A3021 RMK A01 T00371005  RH  074%=      5-min Rain = 0
KSE2 161048Z 19005KT 04/M01 A3021 RMK A01 T00371005  RH  074%=      5-min Rain = 0
KSE2 161049Z 19005KT 04/M01 A3021 RMK A01 T00371005  RH  074%=      5-min Rain = 0
KSE2 161050Z 19005KT 04/M01 A3021 RMK A01 T00371005  RH  074%=      5-min Rain = 0
KSE2 161051Z 19005KT 04/M01 A3021 RMK A01 T00361005  RH  074%=      5-min Rain = 0
KSE2 161052Z 19005KT 04/M01 A3021 RMK A01 T00361005  RH  074%=      5-min Rain = 0
KSE2 161053Z 19005KT 04/M01 A3021 RMK A01 T00361005  RH  074%=      5-min Rain = 0
KSE2 161054Z 19005KT 04/M01 A3021 RMK A01 T00361005  RH  074%=      5-min Rain = 0
KSE2 161055Z 19006KT 04/M01 A3021 RMK A01 T00361005  RH  074%=      5-min Rain = 0
KSE2 161056Z 19006KT 04/M01 A3021 RMK A01 T00361005  RH  074%=      5-min Rain = 0
KSE2 161057Z 20006KT 04/M01 A3021 RMK A01 T00371005  RH  074%=      5-min Rain = 0
KSE2 161058Z 20006KT 04/M01 A3021 RMK A01 T00371005  RH  074%=      5-min Rain = 0
KSE2 161059Z 20006KT 04/M01 A3021 RMK A01 T00381005  RH  074%=      5-min Rain = 0
KSE2 161100Z 19007KT 04/M01 A3022 RMK A01 T00381005  RH  074%=      5-min Rain = 0
KSE2 161101Z 19006KT 04/M00 A3022 RMK A01 T00381004  RH  074%=      5-min Rain = 0
KSE2 161102Z 20006KT 04/M00 A3022 RMK A01 T00391004  RH  073%=      5-min Rain = 0
KSE2 161103Z 20006KT 04/M00 A3022 RMK A01 T00401004  RH  073%=      5-min Rain = 0
KSE2 161104Z 20006KT 04/M00 A3022 RMK A01 T00391004  RH  073%=      5-min Rain = 0
KSE2 161105Z 20006KT 04/M00 A3022 RMK A01 T00391004  RH  073%=      5-min Rain = 0
KSE2 161106Z 20006KT 04/M00 A3022 RMK A01 T00391004  RH  073%=      5-min Rain = 0
KSE2 161107Z 20006KT 04/M00 A3022 RMK A01 T00391004  RH  073%=      5-min Rain = 0
KSE2 161108Z 19006KT 04/M00 A3022 RMK A01 T00391004  RH  073%=      5-min Rain = 0
KSE2 161109Z 19007KT 04/M00 A3021 RMK A01 T00401004  RH  073%=      5-min Rain = 0
KSE2 161110Z 19006KT 04/M00 A3021 RMK A01 T00401004  RH  073%=      5-min Rain = 0
KSE2 161111Z 19006KT 04/M00 A3021 RMK A01 T00401004  RH  073%=      5-min Rain = 0
KSE2 161112Z 19006KT 04/M00 A3021 RMK A01 T00401004  RH  073%=      5-min Rain = 0
KSE2 161113Z 19006KT 04/M00 A3021 RMK A01 T00401004  RH  073%=      5-min Rain = 0
KSE2 161114Z 19006KT 04/M01 A3021 RMK A01 T00401005  RH  073%=      5-min Rain = 0
KSE2 161115Z 19006KT 04/M00 A3021 RMK A01 T00401004  RH  073%=      5-min Rain = 0
KSE2 161116Z 19006KT 04/M00 A3022 RMK A01 T00401004  RH  073%=      5-min Rain = 0
KSE2 161117Z 19006KT 04/M00 A3022 RMK A01 T00401004  RH  073%=      5-min Rain = 0
KSE2 161118Z 19006KT 04/M01 A3022 RMK A01 T00391005  RH  073%=      5-min Rain = 0
KSE2 161119Z 19006KT 04/M00 A3022 RMK A01 T00391004  RH  073%=      5-min Rain = 0
KSE2 161120Z 19006KT 04/M01 A3022 RMK A01 T00391005  RH  073%=      5-min Rain = 0
KSE2 161121Z 19006KT 04/M01 A3022 RMK A01 T00391005  RH  073%=      5-min Rain = 0
KSE2 161122Z 19006KT 04/M01 A3022 RMK A01 T00391005  RH  073%=      5-min Rain = 0
KSE2 161123Z 19006KT 04/M01 A3022 RMK A01 T00391005  RH  073%=      5-min Rain = 0
KSE2 161124Z 19006KT 04/M01 A3022 RMK A01 T00391005  RH  073%=      5-min Rain = 0
KSE2 161125Z 19006KT 04/M01 A3022 RMK A01 T00391005  RH  073%=      5-min Rain = 0
KSE2 161126Z 19006KT 04/M01 A3022 RMK A01 T00391005  RH  073%=      5-min Rain = 0
KSE2 161127Z 19006KT 04/M01 A3022 RMK A01 T00391005  RH  073%=      5-min Rain = 0
KSE2 161128Z 19006KT 04/M01 A3022 RMK A01 T00391005  RH  073%=      5-min Rain = 0
KSE2 161129Z 18006KT 04/M01 A3022 RMK A01 T00381005  RH  073%=      5-min Rain = 0
KSE2 161130Z 18006KT 04/M01 A3022 RMK A01 T00381005  RH  073%=      5-min Rain = 0
KSE2 161131Z 18006KT 04/M01 A3022 RMK A01 T00381005  RH  073%=      5-min Rain = 0
KSE2 161132Z 18006KT 04/M01 A3022 RMK A01 T00381005  RH  073%=      5-min Rain = 0
KSE2 161133Z 18006KT 04/M01 A3022 RMK A01 T00381005  RH  073%=      5-min Rain = 0
KSE2 161134Z 18006KT 04/M01 A3022 RMK A01 T00381005  RH  073%=      5-min Rain = 0
KSE2 161135Z 18007KT 04/M01 A3022 RMK A01 T00391005  RH  073%=      5-min Rain = 0
KSE2 161136Z 17006KT 04/M00 A3022 RMK A01 T00391004  RH  073%=      5-min Rain = 0
KSE2 161137Z 18006KT 04/M00 A3022 RMK A01 T00401004  RH  073%=      5-min Rain = 0
KSE2 161138Z 18006KT 04/M00 A3022 RMK A01 T00401004  RH  073%=      5-min Rain = 0
KSE2 161139Z 18006KT 04/M01 A3022 RMK A01 T00401005  RH  073%=      5-min Rain = 0
KSE2 161140Z 17005KT 04/M01 A3022 RMK A01 T00401005  RH  073%=      5-min Rain = 0
KSE2 161141Z 17006KT 04/M01 A3022 RMK A01 T00401005  RH  073%=      5-min Rain = 0
KSE2 161142Z 17006KT 04/M01 A3022 RMK A01 T00401005  RH  073%=      5-min Rain = 0
KSE2 161143Z 17006KT 04/M01 A3021 RMK A01 T00391005  RH  073%=      5-min Rain = 0
KSE2 161144Z 17006KT 04/M01 A3021 RMK A01 T00401005  RH  073%=      5-min Rain = 0
KSE2 161145Z 17006KT 04/M01 A3021 RMK A01 T00391005  RH  073%=      5-min Rain = 0
KSE2 161146Z 18006KT 04/M01 A3021 RMK A01 T00391005  RH  073%=      5-min Rain = 0
KSE2 161147Z 18006KT 04/M01 A3021 RMK A01 T00381006  RH  073%=      5-min Rain = 0
KSE2 161148Z 18006KT 04/M01 A3022 RMK A01 T00381006  RH  073%=      5-min Rain = 0
KSE2 161149Z 18006KT 04/M01 A3022 RMK A01 T00371006  RH  074%=      5-min Rain = 0
KSE2 161150Z 18006KT 04/M01 A3022 RMK A01 T00371006  RH  074%=      5-min Rain = 0
KSE2 161151Z 19006KT 04/M01 A3022 RMK A01 T00361006  RH  074%=      5-min Rain = 0
KSE2 161152Z 19005KT 04/M01 A3022 RMK A01 T00361005  RH  074%=      5-min Rain = 0
KSE2 161153Z 19006KT 04/M01 A3022 RMK A01 T00361005  RH  074%=      5-min Rain = 0
KSE2 161154Z 19005KT 04/M01 A3022 RMK A01 T00361006  RH  074%=      5-min Rain = 0
KSE2 161155Z 19005KT 04/M01 A3022 RMK A01 T00361006  RH  074%=      5-min Rain = 0
KSE2 161156Z 19005KT 04/M01 A3022 RMK A01 T00351006  RH  075%=      5-min Rain = 0
KSE2 161157Z 20005KT 04/M01 A3022 RMK A01 T00351006  RH  075%=      5-min Rain = 0
KSE2 161158Z 20005KT 04/M01 A3022 RMK A01 T00351006  RH  075%=      5-min Rain = 0
KSE2 161159Z 20005KT 04/M01 A3022 RMK A01 T00351006  RH  075%=      5-min Rain = 0
KSE2 161200Z 20005KT 04/M01 A3022 RMK A01 T00351006  RH  075%=      5-min Rain = 0
KSE2 161201Z 20006KT 04/M01 A3022 RMK A01 T00351006  RH  075%=      5-min Rain = 0
KSE2 161202Z 19006KT 04/M01 A3022 RMK A01 T00361005  RH  075%=      5-min Rain = 0
KSE2 161203Z 19006KT 04/M00 A3022 RMK A01 T00371004  RH  074%=      5-min Rain = 0
KSE2 161204Z 19006KT 04/M00 A3022 RMK A01 T00381004  RH  074%=      5-min Rain = 0
KSE2 161205Z 19006KT 04/M00 A3022 RMK A01 T00381004  RH  074%=      5-min Rain = 0
KSE2 161206Z 19005KT 04/M00 A3022 RMK A01 T00381004  RH  074%=      5-min Rain = 0
KSE2 161207Z 19006KT 04/M01 A3022 RMK A01 T00371005  RH  074%=      5-min Rain = 0
KSE2 161208Z 19006KT 04/M01 A3022 RMK A01 T00371005  RH  074%=      5-min Rain = 0
KSE2 161209Z 20006KT 04/M01 A3022 RMK A01 T00361005  RH  074%=      5-min Rain = 0
KSE2 161210Z 19006KT 04/M01 A3022 RMK A01 T00361005  RH  074%=      5-min Rain = 0
KSE2 161211Z 19006KT 04/M01 A3022 RMK A01 T00371005  RH  074%=      5-min Rain = 0
KSE2 161212Z 19006KT 04/M00 A3022 RMK A01 T00381004  RH  074%=      5-min Rain = 0
KSE2 161213Z 19006KT 04/M01 A3022 RMK A01 T00381005  RH  074%=      5-min Rain = 0
KSE2 161214Z 19006KT 04/M00 A3022 RMK A01 T00391004  RH  073%=      5-min Rain = 0
KSE2 161215Z 19007KT 04/M00 A3022 RMK A01 T00401004  RH  073%=      5-min Rain = 0
KSE2 161216Z 19006KT 04/M00 A3022 RMK A01 T00411004  RH  073%=      5-min Rain = 0
KSE2 161217Z 19006KT 04/M00 A3022 RMK A01 T00411004  RH  072%=      5-min Rain = 0
KSE2 161218Z 19006KT 04/M01 A3022 RMK A01 T00401005  RH  072%=      5-min Rain = 0
KSE2 161219Z 19006KT 04/M01 A3022 RMK A01 T00401005  RH  072%=      5-min Rain = 0
KSE2 161220Z 19005KT 04/M01 A3022 RMK A01 T00401005  RH  073%=      5-min Rain = 0
KSE2 161221Z 19006KT 04/M01 A3022 RMK A01 T00401005  RH  073%=      5-min Rain = 0
KSE2 161222Z 19006KT 04/M01 A3022 RMK A01 T00391005  RH  073%=      5-min Rain = 0
KSE2 161223Z 19006KT 04/M01 A3022 RMK A01 T00391005  RH  073%=      5-min Rain = 0
KSE2 161224Z 19006KT 04/M01 A3022 RMK A01 T00391005  RH  073%=      5-min Rain = 0
KSE2 161225Z 19006KT 04/M01 A3022 RMK A01 T00391005  RH  073%=      5-min Rain = 0
KSE2 161226Z 19006KT 04/M01 A3022 RMK A01 T00391005  RH  073%=      5-min Rain = 0
KSE2 161227Z 19006KT 04/M01 A3022 RMK A01 T00391005  RH  073%=      5-min Rain = 0
KSE2 161228Z 19007KT 04/M01 A3022 RMK A01 T00401005  RH  073%=      5-min Rain = 0
KSE2 161229Z 19006KT 04/M01 A3023 RMK A01 T00401005  RH  073%=      5-min Rain = 0
KSE2 161230Z 19007KT 04/M01 A3023 RMK A01 T00391005  RH  073%=      5-min Rain = 0
KSE2 161231Z 19006KT 04/M01 A3023 RMK A01 T00401005  RH  073%=      5-min Rain = 0
KSE2 161232Z 19006KT 04/M01 A3023 RMK A01 T00401005  RH  072%=      5-min Rain = 0
KSE2 161233Z 19006KT 04/M01 A3023 RMK A01 T00411005  RH  072%=      5-min Rain = 0
KSE2 161234Z 19006KT 04/M00 A3023 RMK A01 T00411004  RH  072%=      5-min Rain = 0
KSE2 161235Z 19006KT 04/M01 A3023 RMK A01 T00411005  RH  072%=      5-min Rain = 0
KSE2 161236Z 19006KT 04/M01 A3023 RMK A01 T00411005  RH  072%=      5-min Rain = 0
KSE2 161237Z 19006KT 04/M01 A3023 RMK A01 T00401005  RH  072%=      5-min Rain = 0
KSE2 161238Z 19005KT 04/M01 A3023 RMK A01 T00401005  RH  072%=      5-min Rain = 0
KSE2 161239Z 19006KT 04/M01 A3023 RMK A01 T00401005  RH  073%=      5-min Rain = 0
KSE2 161240Z 19005KT 04/M01 A3023 RMK A01 T00391005  RH  073%=      5-min Rain = 0
KSE2 161241Z 19005KT 04/M01 A3023 RMK A01 T00391005  RH  073%=      5-min Rain = 0
KSE2 161242Z 19005KT 04/M01 A3023 RMK A01 T00391005  RH  073%=      5-min Rain = 0
KSE2 161243Z 19005KT 04/M01 A3023 RMK A01 T00391005  RH  073%=      5-min Rain = 0
KSE2 161244Z 19005KT 04/M01 A3023 RMK A01 T00381006  RH  073%=      5-min Rain = 0
KSE2 161245Z 19005KT 04/M01 A3023 RMK A01 T00381006  RH  073%=      5-min Rain = 0
KSE2 161246Z 19005KT 04/M01 A3023 RMK A01 T00371006  RH  074%=      5-min Rain = 0
KSE2 161247Z 19005KT 04/M01 A3023 RMK A01 T00361006  RH  074%=      5-min Rain = 0
KSE2 161248Z 19005KT 04/M01 A3023 RMK A01 T00361006  RH  074%=      5-min Rain = 0
KSE2 161249Z 19005KT 04/M01 A3023 RMK A01 T00361006  RH  074%=      5-min Rain = 0
KSE2 161250Z 19005KT 04/M01 A3023 RMK A01 T00361006  RH  074%=      5-min Rain = 0
KSE2 161251Z 20004KT 04/M01 A3023 RMK A01 T00351006  RH  075%=      5-min Rain = 0
KSE2 161252Z 20004KT 04/M01 A3023 RMK A01 T00351006  RH  075%=      5-min Rain = 0
KSE2 161253Z 20005KT 04/M01 A3023 RMK A01 T00351006  RH  075%=      5-min Rain = 0
KSE2 161254Z 20004KT 04/M01 A3023 RMK A01 T00351005  RH  075%=      5-min Rain = 0
KSE2 161255Z 20005KT 04/M01 A3023 RMK A01 T00351006  RH  075%=      5-min Rain = 0
KSE2 161256Z 20004KT 03/M01 A3023 RMK A01 T00341006  RH  075%=      5-min Rain = 0
KSE2 161257Z 20004KT 03/M01 A3023 RMK A01 T00341006  RH  075%=      5-min Rain = 0
KSE2 161258Z 19005KT 03/M01 A3023 RMK A01 T00341006  RH  075%=      5-min Rain = 0
KSE2 161259Z 19004KT 03/M01 A3023 RMK A01 T00341006  RH  075%=      5-min Rain = 0
KSE2 161300Z 19005KT 03/M01 A3023 RMK A01 T00341006  RH  075%=      5-min Rain = 0
KSE2 161301Z 19005KT 03/M01 A3023 RMK A01 T00341006  RH  075%=      5-min Rain = 0
KSE2 161302Z 19005KT 03/M01 A3023 RMK A01 T00341006  RH  075%=      5-min Rain = 0
KSE2 161303Z 19005KT 03/M01 A3024 RMK A01 T00341006  RH  075%=      5-min Rain = 0
KSE2 161304Z 19005KT 03/M01 A3024 RMK A01 T00341005  RH  075%=      5-min Rain = 0
KSE2 161305Z 19005KT 03/M01 A3023 RMK A01 T00341005  RH  075%=      5-min Rain = 0
KSE2 161306Z 19005KT 03/M01 A3023 RMK A01 T00341005  RH  075%=      5-min Rain = 0
KSE2 161307Z 18005KT 03/M01 A3023 RMK A01 T00341005  RH  075%=      5-min Rain = 0
KSE2 161308Z 18005KT 03/M01 A3023 RMK A01 T00341005  RH  075%=      5-min Rain = 0
KSE2 161309Z 18005KT 03/M01 A3023 RMK A01 T00341005  RH  076%=      5-min Rain = 0
KSE2 161310Z 18005KT 03/M01 A3023 RMK A01 T00341005  RH  076%=      5-min Rain = 0
KSE2 161311Z 18005KT 03/M01 A3024 RMK A01 T00331005  RH  076%=      5-min Rain = 0
KSE2 161312Z 18005KT 03/M01 A3024 RMK A01 T00341005  RH  076%=      5-min Rain = 0
KSE2 161313Z 18005KT 03/M01 A3024 RMK A01 T00341005  RH  076%=      5-min Rain = 0
KSE2 161314Z 18005KT 03/M01 A3024 RMK A01 T00331005  RH  076%=      5-min Rain = 0
KSE2 161315Z 18005KT 03/M01 A3024 RMK A01 T00331005  RH  076%=      5-min Rain = 0
KSE2 161316Z 18005KT 03/M01 A3024 RMK A01 T00331005  RH  076%=      5-min Rain = 0
KSE2 161317Z 18005KT 03/M01 A3024 RMK A01 T00331005  RH  076%=      5-min Rain = 0
KSE2 161318Z 18004KT 03/M01 A3024 RMK A01 T00331005  RH  076%=      5-min Rain = 0
KSE2 161319Z 18004KT 03/M01 A3024 RMK A01 T00341005  RH  076%=      5-min Rain = 0
KSE2 161320Z 18004KT 04/M00 A3024 RMK A01 T00351004  RH  076%=      5-min Rain = 0
KSE2 161321Z 18004KT 04/M00 A3023 RMK A01 T00351004  RH  075%=      5-min Rain = 0
KSE2 161322Z 18004KT 04/M00 A3023 RMK A01 T00361004  RH  075%=      5-min Rain = 0
KSE2 161323Z 18004KT 04/M00 A3023 RMK A01 T00361004  RH  075%=      5-min Rain = 0
KSE2 161324Z 18004KT 04/M00 A3023 RMK A01 T00361004  RH  075%=      5-min Rain = 0
KSE2 161325Z 18004KT 04/M00 A3023 RMK A01 T00371004  RH  075%=      5-min Rain = 0
KSE2 161326Z 18004KT 04/M00 A3023 RMK A01 T00371004  RH  075%=      5-min Rain = 0
KSE2 161327Z 18004KT 04/M00 A3023 RMK A01 T00371004  RH  075%=      5-min Rain = 0
KSE2 161328Z 19004KT 04/M00 A3023 RMK A01 T00371004  RH  074%=      5-min Rain = 0
KSE2 161329Z 18005KT 04/M00 A3023 RMK A01 T00381004  RH  074%=      5-min Rain = 0
KSE2 161330Z 18004KT 04/M00 A3023 RMK A01 T00381004  RH  074%=      5-min Rain = 0
KSE2 161331Z 19004KT 04/M00 A3023 RMK A01 T00381004  RH  074%=      5-min Rain = 0
KSE2 161332Z 18005KT 04/M00 A3024 RMK A01 T00381004  RH  074%=      5-min Rain = 0
KSE2 161333Z 18004KT 04/M00 A3024 RMK A01 T00381004  RH  074%=      5-min Rain = 0
KSE2 161334Z 18004KT 04/M00 A3024 RMK A01 T00391003  RH  074%=      5-min Rain = 0
KSE2 161335Z 18004KT 04/M00 A3024 RMK A01 T00401002  RH  074%=      5-min Rain = 0
KSE2 161336Z 18005KT 04/M00 A3024 RMK A01 T00411001  RH  074%=      5-min Rain = 0
KSE2 161337Z 18004KT 04/M00 A3024 RMK A01 T00411002  RH  073%=      5-min Rain = 0
KSE2 161338Z 18004KT 04/M00 A3024 RMK A01 T00421002  RH  073%=      5-min Rain = 0
KSE2 161339Z 18005KT 04/M00 A3024 RMK A01 T00421001  RH  073%=      5-min Rain = 0
KSE2 161340Z 18004KT 04/M00 A3024 RMK A01 T00431001  RH  073%=      5-min Rain = 0
KSE2 161341Z 18004KT 04/00 A3024 RMK A01 T004400-0  RH  073%=      5-min Rain = 0
KSE2 161342Z 18005KT 04/M00 A3024 RMK A01 T00441001  RH  072%=      5-min Rain = 0
KSE2 161343Z 18004KT 05/00 A3024 RMK A01 T004500-0  RH  073%=      5-min Rain = 0
KSE2 161344Z 18004KT 05/00 A3024 RMK A01 T004600-0  RH  072%=      5-min Rain = 0
KSE2 161345Z 18004KT 05/00 A3024 RMK A01 T00470000  RH  072%=      5-min Rain = 0
KSE2 161346Z 18004KT 05/00 A3024 RMK A01 T00480001  RH  072%=      5-min Rain = 0
KSE2 161347Z 18004KT 05/00 A3024 RMK A01 T00480001  RH  071%=      5-min Rain = 0
KSE2 161348Z 17004KT 05/00 A3024 RMK A01 T00490001  RH  071%=      5-min Rain = 0
KSE2 161349Z 18004KT 05/00 A3024 RMK A01 T00500002  RH  071%=      5-min Rain = 0
KSE2 161350Z 18004KT 05/00 A3024 RMK A01 T00500002  RH  071%=      5-min Rain = 0
KSE2 161351Z 17004KT 05/00 A3024 RMK A01 T00510003  RH  071%=      5-min Rain = 0
KSE2 161352Z 17003KT 05/00 A3024 RMK A01 T00510004  RH  071%=      5-min Rain = 0
KSE2 161353Z 18004KT 05/00 A3024 RMK A01 T00520003  RH  071%=      5-min Rain = 0
KSE2 161354Z 18003KT 05/00 A3024 RMK A01 T00520004  RH  071%=      5-min Rain = 0
KSE2 161355Z 18004KT 05/00 A3024 RMK A01 T00530003  RH  070%=      5-min Rain = 0
KSE2 161356Z 18004KT 05/00 A3024 RMK A01 T00530003  RH  070%=      5-min Rain = 0
KSE2 161357Z 17003KT 05/00 A3024 RMK A01 T00530003  RH  070%=      5-min Rain = 0
KSE2 161358Z 17004KT 05/01 A3024 RMK A01 T00540005  RH  071%=      5-min Rain = 0
KSE2 161359Z 18004KT 05/01 A3024 RMK A01 T00540005  RH  071%=      5-min Rain = 0
KSE2 161400Z 18003KT 06/00 A3024 RMK A01 T00550004  RH  070%=      5-min Rain = 0
KSE2 161401Z 16004KT 06/01 A3024 RMK A01 T00550005  RH  070%=      5-min Rain = 0
KSE2 161402Z 17005KT 06/01 A3024 RMK A01 T00560007  RH  071%=      5-min Rain = 0
KSE2 161403Z 17003KT 06/01 A3024 RMK A01 T00560007  RH  070%=      5-min Rain = 0
KSE2 161404Z 17004KT 06/01 A3024 RMK A01 T00570008  RH  071%=      5-min Rain = 0
KSE2 161405Z 17004KT 06/01 A3024 RMK A01 T00580008  RH  071%=      5-min Rain = 0
KSE2 161406Z 16005KT 06/01 A3024 RMK A01 T00580008  RH  070%=      5-min Rain = 0
KSE2 161407Z 17004KT 06/01 A3024 RMK A01 T00590009  RH  071%=      5-min Rain = 0
KSE2 161408Z 17005KT 06/01 A3024 RMK A01 T00600011  RH  071%=      5-min Rain = 0
KSE2 161409Z 17004KT 06/01 A3024 RMK A01 T00610010  RH  070%=      5-min Rain = 0
KSE2 161410Z 17005KT 06/01 A3024 RMK A01 T00610011  RH  070%=      5-min Rain = 0
KSE2 161411Z 17005KT 06/01 A3024 RMK A01 T00620009  RH  069%=      5-min Rain = 0
KSE2 161412Z 17005KT 06/01 A3024 RMK A01 T00630011  RH  069%=      5-min Rain = 0
KSE2 161413Z 17004KT 06/01 A3024 RMK A01 T00630011  RH  069%=      5-min Rain = 0
KSE2 161414Z 18005KT 06/01 A3024 RMK A01 T00640011  RH  069%=      5-min Rain = 0
KSE2 161415Z 17004KT 07/01 A3024 RMK A01 T00650011  RH  069%=      5-min Rain = 0
KSE2 161416Z 17005KT 07/01 A3024 RMK A01 T00650012  RH  069%=      5-min Rain = 0
KSE2 161417Z 18005KT 07/01 A3024 RMK A01 T00660012  RH  068%=      5-min Rain = 0
KSE2 161418Z 16004KT 07/01 A3024 RMK A01 T00670012  RH  068%=      5-min Rain = 0
KSE2 161419Z 18005KT 07/01 A3024 RMK A01 T00680013  RH  068%=      5-min Rain = 0
KSE2 161420Z 18006KT 07/01 A3024 RMK A01 T00680012  RH  068%=      5-min Rain = 0
KSE2 161421Z 17004KT 07/01 A3024 RMK A01 T00690012  RH  067%=      5-min Rain = 0
KSE2 161422Z 17004KT 07/01 A3024 RMK A01 T00690014  RH  068%=      5-min Rain = 0
KSE2 161423Z 17004KT 07/02 A3024 RMK A01 T00700015  RH  068%=      5-min Rain = 0
KSE2 161424Z 17004KT 07/01 A3024 RMK A01 T00700014  RH  067%=      5-min Rain = 0
KSE2 161425Z 17005KT 07/02 A3024 RMK A01 T00700015  RH  068%=      5-min Rain = 0
KSE2 161426Z 17005KT 07/01 A3024 RMK A01 T00700014  RH  067%=      5-min Rain = 0
KSE2 161427Z 16005KT 07/01 A3024 RMK A01 T00700014  RH  067%=      5-min Rain = 0
KSE2 161428Z 16005KT 07/02 A3024 RMK A01 T00710017  RH  068%=      5-min Rain = 0
KSE2 161429Z 16005KT 07/02 A3024 RMK A01 T00710015  RH  068%=      5-min Rain = 0
KSE2 161430Z 17005KT 07/02 A3024 RMK A01 T00710016  RH  068%=      5-min Rain = 0
KSE2 161431Z 16005KT 07/02 A3024 RMK A01 T00710015  RH  068%=      5-min Rain = 0
KSE2 161432Z 16007KT 07/02 A3024 RMK A01 T00710015  RH  068%=      5-min Rain = 0
KSE2 161433Z 17005KT 07/01 A3024 RMK A01 T00710014  RH  067%=      5-min Rain = 0
KSE2 161434Z 17005KT 07/02 A3024 RMK A01 T00710015  RH  067%=      5-min Rain = 0
KSE2 161435Z 16005KT 07/02 A3024 RMK A01 T00720016  RH  068%=      5-min Rain = 0
KSE2 161436Z 16006KT 07/02 A3024 RMK A01 T00730017  RH  067%=      5-min Rain = 0
KSE2 161437Z 17006KT 07/02 A3024 RMK A01 T00740015  RH  067%=      5-min Rain = 0
KSE2 161438Z 17006KT 07/02 A3024 RMK A01 T00740016  RH  067%=      5-min Rain = 0
KSE2 161439Z 16007KT 07/02 A3024 RMK A01 T00740016  RH  066%=      5-min Rain = 0
KSE2 161440Z 16005KT 08/02 A3024 RMK A01 T00750015  RH  066%=      5-min Rain = 0
KSE2 161441Z 17006KT 08/02 A3024 RMK A01 T00750017  RH  066%=      5-min Rain = 0
KSE2 161442Z 17008KT 08/02 A3024 RMK A01 T00760016  RH  066%=      5-min Rain = 0
KSE2 161443Z 16006KT 08/02 A3024 RMK A01 T00770016  RH  065%=      5-min Rain = 0
KSE2 161444Z 16006KT 08/02 A3024 RMK A01 T00770017  RH  065%=      5-min Rain = 0
KSE2 161445Z 16008KT 08/02 A3024 RMK A01 T00780016  RH  065%=      5-min Rain = 0
KSE2 161446Z 16007KT 08/01 A3025 RMK A01 T00780014  RH  064%=      5-min Rain = 0
KSE2 161447Z 16007KT 08/02 A3025 RMK A01 T00780015  RH  065%=      5-min Rain = 0
KSE2 161448Z 16007KT 08/02 A3024 RMK A01 T00780015  RH  065%=      5-min Rain = 0
KSE2 161449Z 16006KT 08/02 A3025 RMK A01 T00780015  RH  065%=      5-min Rain = 0
KSE2 161450Z 17006KT 08/02 A3025 RMK A01 T00780016  RH  065%=      5-min Rain = 0
KSE2 161451Z 16005KT 08/02 A3024 RMK A01 T00790017  RH  065%=      5-min Rain = 0
KSE2 161452Z 17006KT 08/02 A3024 RMK A01 T00790017  RH  065%=      5-min Rain = 0
KSE2 161453Z 17006KT 08/02 A3024 RMK A01 T00800016  RH  064%=      5-min Rain = 0
KSE2 161454Z 17005KT 08/02 A3024 RMK A01 T00800016  RH  064%=      5-min Rain = 0
KSE2 161455Z 16005KT 08/02 A3024 RMK A01 T00810020  RH  065%=      5-min Rain = 0
KSE2 161456Z 17006KT 08/02 A3024 RMK A01 T00810019  RH  065%=      5-min Rain = 0
KSE2 161457Z 17005KT 08/02 A3024 RMK A01 T00820020  RH  065%=      5-min Rain = 0
KSE2 161458Z 17005KT 08/02 A3024 RMK A01 T00820020  RH  065%=      5-min Rain = 0
KSE2 161459Z 17005KT 08/02 A3024 RMK A01 T00820022  RH  066%=      5-min Rain = 0
KSE2 161500Z 17006KT 08/02 A3024 RMK A01 T00830024  RH  066%=      5-min Rain = 0
KSE2 161501Z 17006KT 08/02 A3024 RMK A01 T00840022  RH  065%=      5-min Rain = 0
KSE2 161502Z 17005KT 09/02 A3024 RMK A01 T00850020  RH  063%=      5-min Rain = 0
KSE2 161503Z 18004KT 09/02 A3024 RMK A01 T00870022  RH  064%=      5-min Rain = 0
KSE2 161504Z 17004KT 09/02 A3024 RMK A01 T00880022  RH  063%=      5-min Rain = 0
KSE2 161505Z 17004KT 09/02 A3024 RMK A01 T00900022  RH  062%=      5-min Rain = 0
KSE2 161506Z 16004KT 09/02 A3024 RMK A01 T00910023  RH  062%=      5-min Rain = 0
KSE2 161507Z 17007KT 09/02 A3024 RMK A01 T00920022  RH  062%=      5-min Rain = 0
KSE2 161508Z 17007KT 09/02 A3024 RMK A01 T00930019  RH  060%=      5-min Rain = 0
KSE2 161509Z 18008KT 09/02 A3024 RMK A01 T00930018  RH  060%=      5-min Rain = 0
KSE2 161510Z 18008KT 09/02 A3024 RMK A01 T00920018  RH  060%=      5-min Rain = 0
KSE2 161511Z 18008KT 09/02 A3024 RMK A01 T00920016  RH  059%=      5-min Rain = 0
KSE2 161512Z 19007KT 09/02 A3024 RMK A01 T00910017  RH  060%=      5-min Rain = 0
KSE2 161513Z 18005KT 09/02 A3024 RMK A01 T00920020  RH  061%=      5-min Rain = 0
KSE2 161514Z 17007KT 09/02 A3024 RMK A01 T00930022  RH  061%=      5-min Rain = 0
KSE2 161515Z 17007KT 09/02 A3024 RMK A01 T00940020  RH  060%=      5-min Rain = 0
KSE2 161516Z 17007KT 10/02 A3024 RMK A01 T00950020  RH  060%=      5-min Rain = 0
KSE2 161517Z 18007KT 10/02 A3024 RMK A01 T00950020  RH  060%=      5-min Rain = 0
KSE2 161518Z 19007KT 10/02 A3024 RMK A01 T00960019  RH  059%=      5-min Rain = 0
KSE2 161519Z 17003KT 10/02 A3024 RMK A01 T00950022  RH  060%=      5-min Rain = 0
KSE2 161520Z 16005KT 10/03 A3024 RMK A01 T00970026  RH  061%=      5-min Rain = 0
KSE2 161521Z 16008KT 10/02 A3024 RMK A01 T00990022  RH  059%=      5-min Rain = 0
KSE2 161522Z 17006KT 10/02 A3024 RMK A01 T00980021  RH  059%=      5-min Rain = 0
KSE2 161523Z 16006KT 10/03 A3023 RMK A01 T00980025  RH  060%=      5-min Rain = 0
KSE2 161524Z 17007KT 10/02 A3023 RMK A01 T01000023  RH  059%=      5-min Rain = 0
KSE2 161525Z 17006KT 10/02 A3023 RMK A01 T00990022  RH  059%=      5-min Rain = 0
KSE2 161526Z 15007KT 10/02 A3023 RMK A01 T00990023  RH  059%=      5-min Rain = 0
KSE2 161527Z 15006KT 10/02 A3023 RMK A01 T00990024  RH  059%=      5-min Rain = 0
KSE2 161528Z 16006KT 10/02 A3023 RMK A01 T00990024  RH  059%=      5-min Rain = 0
KSE2 161529Z 17006KT 10/02 A3023 RMK A01 T00990024  RH  059%=      5-min Rain = 0
KSE2 161530Z 16006KT 10/02 A3023 RMK A01 T00990023  RH  059%=      5-min Rain = 0
KSE2 161531Z 17006KT 10/02 A3023 RMK A01 T01000023  RH  059%=      5-min Rain = 0
KSE2 161532Z 17005KT 10/03 A3023 RMK A01 T01000026  RH  060%=      5-min Rain = 0
KSE2 161533Z 16005KT 10/02 A3023 RMK A01 T01010024  RH  059%=      5-min Rain = 0
KSE2 161534Z 15006KT 10/03 A3023 RMK A01 T01010027  RH  060%=      5-min Rain = 0
KSE2 161535Z 16007KT 10/03 A3023 RMK A01 T01020025  RH  059%=      5-min Rain = 0
KSE2 161536Z 17007KT 10/02 A3023 RMK A01 T01010024  RH  059%=      5-min Rain = 0
KSE2 161537Z 14006KT 10/03 A3023 RMK A01 T01010025  RH  059%=      5-min Rain = 0
KSE2 161538Z 15008KT 10/03 A3023 RMK A01 T01020025  RH  059%=      5-min Rain = 0
KSE2 161539Z 15006KT 10/02 A3023 RMK A01 T01010024  RH  059%=      5-min Rain = 0
KSE2 161540Z 15007KT 10/03 A3023 RMK A01 T01010025  RH  059%=      5-min Rain = 0
KSE2 161541Z 16006KT 10/03 A3024 RMK A01 T01020026  RH  059%=      5-min Rain = 0
KSE2 161542Z 17007KT 10/03 A3024 RMK A01 T01040026  RH  059%=      5-min Rain = 0
KSE2 161543Z 15006KT 10/02 A3024 RMK A01 T01040024  RH  057%=      5-min Rain = 0
KSE2 161544Z 15005KT 10/03 A3024 RMK A01 T01040025  RH  058%=      5-min Rain = 0
KSE2 161545Z 16005KT 10/03 A3024 RMK A01 T01040026  RH  058%=      5-min Rain = 0
KSE2 161546Z 15006KT 11/03 A3024 RMK A01 T01050027  RH  058%=      5-min Rain = 0
KSE2 161547Z 15006KT 11/03 A3024 RMK A01 T01060026  RH  058%=      5-min Rain = 0
KSE2 161548Z 15006KT 11/03 A3024 RMK A01 T01060027  RH  058%=      5-min Rain = 0
KSE2 161549Z 15006KT 11/03 A3024 RMK A01 T01070025  RH  057%=      5-min Rain = 0
KSE2 161550Z 17007KT 11/03 A3024 RMK A01 T01070026  RH  057%=      5-min Rain = 0
KSE2 161551Z 16007KT 11/03 A3024 RMK A01 T01070025  RH  057%=      5-min Rain = 0
KSE2 161552Z 15005KT 11/02 A3023 RMK A01 T01080023  RH  056%=      5-min Rain = 0
KSE2 161553Z 16007KT 11/03 A3023 RMK A01 T01090026  RH  057%=      5-min Rain = 0
KSE2 161554Z 17008KT 11/03 A3023 RMK A01 T01110025  RH  055%=      5-min Rain = 0
KSE2 161555Z 18005KT 11/02 A3023 RMK A01 T01110024  RH  055%=      5-min Rain = 0
KSE2 161556Z 18005KT 11/03 A3023 RMK A01 T01120027  RH  056%=      5-min Rain = 0
KSE2 161557Z 15004G9KT 11/03 A3023 RMK A01 T01130028  RH  056%=      5-min Rain = 0
KSE2 161558Z 15008KT 11/03 A3023 RMK A01 T01140027  RH  055%=      5-min Rain = 0
KSE2 161559Z 15006KT 11/03 A3023 RMK A01 T01130026  RH  055%=      5-min Rain = 0
KSE2 161600Z 15006KT 11/03 A3023 RMK A01 T01140030  RH  057%=      5-min Rain = 0
KSE2 161601Z 16007KT 12/03 A3023 RMK A01 T01150028  RH  055%=      5-min Rain = 0
KSE2 161602Z 16008KT 12/03 A3023 RMK A01 T01150026  RH  054%=      5-min Rain = 0
KSE2 161603Z 17007KT 11/03 A3023 RMK A01 T01140026  RH  054%=      5-min Rain = 0
KSE2 161604Z 16007KT 12/03 A3023 RMK A01 T01150026  RH  054%=      5-min Rain = 0
KSE2 161605Z 17005G10KT 12/03 A3023 RMK A01 T01160026  RH  054%=      5-min Rain = 0
KSE2 161606Z 17008KT 12/03 A3023 RMK A01 T01180025  RH  053%=      5-min Rain = 0
KSE2 161607Z 17005KT 12/02 A3023 RMK A01 T01200023  RH  052%=      5-min Rain = 0
KSE2 161608Z 18007KT 12/03 A3023 RMK A01 T01220025  RH  051%=      5-min Rain = 0
KSE2 161609Z 17006KT 12/02 A3023 RMK A01 T01240024  RH  050%=      5-min Rain = 0
KSE2 161610Z 15009KT 12/02 A3023 RMK A01 T01240021  RH  049%=      5-min Rain = 0
KSE2 161611Z 16008G13KT 12/02 A3023 RMK A01 T01230018  RH  049%=      5-min Rain = 0
KSE2 161612Z 17009KT 12/02 A3023 RMK A01 T01230018  RH  049%=      5-min Rain = 0
KSE2 161613Z 16009KT 12/02 A3023 RMK A01 T01230018  RH  049%=      5-min Rain = 0
KSE2 161614Z 16010KT 12/02 A3023 RMK A01 T01240019  RH  049%=      5-min Rain = 0
KSE2 161615Z 17010KT 12/02 A3023 RMK A01 T01240018  RH  048%=      5-min Rain = 0
KSE2 161616Z 16008KT 12/02 A3023 RMK A01 T01240017  RH  048%=      5-min Rain = 0
KSE2 161617Z 17009KT 13/02 A3023 RMK A01 T01250018  RH  048%=      5-min Rain = 0
KSE2 161618Z 15011KT 13/02 A3023 RMK A01 T01260017  RH  047%=      5-min Rain = 0
KSE2 161619Z 16010KT 13/02 A3023 RMK A01 T01250016  RH  047%=      5-min Rain = 0
KSE2 161620Z 16009KT 13/02 A3023 RMK A01 T01250015  RH  047%=      5-min Rain = 0
KSE2 161621Z 17006KT 13/02 A3023 RMK A01 T01250015  RH  047%=      5-min Rain = 0
KSE2 161622Z 19010KT 13/02 A3023 RMK A01 T01260017  RH  047%=      5-min Rain = 0
KSE2 161623Z 19009KT 13/02 A3022 RMK A01 T01260017  RH  047%=      5-min Rain = 0
KSE2 161624Z 18010KT 13/02 A3022 RMK A01 T01270017  RH  047%=      5-min Rain = 0
KSE2 161625Z 19009KT 13/01 A3022 RMK A01 T01280013  RH  045%=      5-min Rain = 0
KSE2 161626Z 19008KT 13/02 A3022 RMK A01 T01270015  RH  046%=      5-min Rain = 0
KSE2 161627Z 19009KT 13/02 A3022 RMK A01 T01290018  RH  047%=      5-min Rain = 0
KSE2 161628Z 18006KT 13/02 A3022 RMK A01 T01300019  RH  047%=      5-min Rain = 0
KSE2 161629Z 17006KT 13/02 A3022 RMK A01 T01310017  RH  046%=      5-min Rain = 0
KSE2 161630Z 16007KT 13/01 A3022 RMK A01 T01320014  RH  045%=      5-min Rain = 0
KSE2 161631Z 17008KT 13/02 A3022 RMK A01 T01330015  RH  045%=      5-min Rain = 0
KSE2 161632Z 17011G16KT 13/01 A3022 RMK A01 T01330009  RH  043%=      5-min Rain = 0
KSE2 161633Z 16011KT 13/01 A3022 RMK A01 T01310006  RH  042%=      5-min Rain = 0
KSE2 161634Z 16009KT 13/01 A3022 RMK A01 T01300009  RH  044%=      5-min Rain = 0
KSE2 161635Z 16011KT 13/01 A3022 RMK A01 T01300009  RH  044%=      5-min Rain = 0
KSE2 161636Z 16011KT 13/01 A3022 RMK A01 T01300009  RH  043%=      5-min Rain = 0
KSE2 161637Z 17011KT 13/01 A3022 RMK A01 T01300010  RH  044%=      5-min Rain = 0
KSE2 161638Z 16010KT 13/01 A3022 RMK A01 T01300009  RH  044%=      5-min Rain = 0
KSE2 161639Z 16010KT 13/01 A3022 RMK A01 T01290009  RH  044%=      5-min Rain = 0
KSE2 161640Z 17010KT 13/01 A3022 RMK A01 T01300010  RH  044%=      5-min Rain = 0
KSE2 161641Z 18011KT 13/01 A3022 RMK A01 T01300010  RH  044%=      5-min Rain = 0
KSE2 161642Z 19007KT 13/01 A3022 RMK A01 T01310010  RH  044%=      5-min Rain = 0
KSE2 161643Z 18005KT 13/01 A3022 RMK A01 T01330014  RH  044%=      5-min Rain = 0
KSE2 161644Z 18009KT 14/01 A3022 RMK A01 T01360014  RH  043%=      5-min Rain = 0
KSE2 161645Z 19009KT 14/01 A3022 RMK A01 T01360011  RH  043%=      5-min Rain = 0
KSE2 161646Z 19009KT 14/01 A3022 RMK A01 T01350007  RH  042%=      5-min Rain = 0
KSE2 161647Z 20008KT 13/01 A3022 RMK A01 T01320007  RH  042%=      5-min Rain = 0
KSE2 161648Z 19007KT 13/01 A3022 RMK A01 T01310012  RH  044%=      5-min Rain = 0
KSE2 161649Z 19010KT 13/01 A3022 RMK A01 T01320012  RH  044%=      5-min Rain = 0
KSE2 161650Z 19008KT 13/01 A3021 RMK A01 T01320013  RH  044%=      5-min Rain = 0
KSE2 161651Z 19010KT 13/01 A3021 RMK A01 T01310011  RH  044%=      5-min Rain = 0
KSE2 161652Z 19009KT 13/01 A3021 RMK A01 T01300011  RH  044%=      5-min Rain = 0
KSE2 161653Z 19008KT 13/01 A3021 RMK A01 T01300012  RH  044%=      5-min Rain = 0
KSE2 161654Z 19007KT 13/01 A3021 RMK A01 T01310010  RH  044%=      5-min Rain = 0
KSE2 161655Z 17006KT 13/01 A3021 RMK A01 T01320014  RH  044%=      5-min Rain = 0
KSE2 161656Z 19005KT 13/02 A3021 RMK A01 T01340017  RH  045%=      5-min Rain = 0
KSE2 161657Z 19009KT 14/02 A3021 RMK A01 T01370017  RH  044%=      5-min Rain = 0
KSE2 161658Z 19011KT 14/01 A3021 RMK A01 T01350009  RH  042%=      5-min Rain = 0
KSE2 161659Z 18010KT 13/01 A3021 RMK A01 T01320009  RH  043%=      5-min Rain = 0
KSE2 161700Z 17010KT 13/01 A3021 RMK A01 T01310008  RH  043%=      5-min Rain = 0
KSE2 161701Z 16008KT 13/01 A3021 RMK A01 T01320010  RH  043%=      5-min Rain = 0
KSE2 161702Z 17010KT 13/01 A3021 RMK A01 T01320007  RH  042%=      5-min Rain = 0
KSE2 161703Z 17009KT 13/00 A3021 RMK A01 T01320003  RH  041%=      5-min Rain = 0
KSE2 161704Z 17007KT 13/01 A3021 RMK A01 T01330005  RH  042%=      5-min Rain = 0
KSE2 161705Z 18007KT 13/01 A3021 RMK A01 T01340009  RH  042%=      5-min Rain = 0
KSE2 161706Z 18008KT 14/01 A3021 RMK A01 T01350008  RH  042%=      5-min Rain = 0
KSE2 161707Z 18007KT 14/01 A3021 RMK A01 T01350008  RH  042%=      5-min Rain = 0
KSE2 161708Z 19009KT 14/01 A3021 RMK A01 T01360008  RH  042%=      5-min Rain = 0
KSE2 161709Z 19009KT 14/01 A3021 RMK A01 T01350006  RH  041%=      5-min Rain = 0
KSE2 161710Z 18010KT 14/01 A3021 RMK A01 T01350008  RH  042%=      5-min Rain = 0
KSE2 161711Z 17008KT 14/01 A3021 RMK A01 T01350008  RH  042%=      5-min Rain = 0
KSE2 161712Z 17006KT 14/01 A302 RMK A01 T01350008  RH  042%=      5-min Rain = 0
KSE2 161713Z 17006KT 14/01 A302 RMK A01 T01360012  RH  043%=      5-min Rain = 0
KSE2 161714Z 17007KT 14/01 A302 RMK A01 T01370013  RH  043%=      5-min Rain = 0
KSE2 161715Z 19009KT 14/01 A302 RMK A01 T01370010  RH  042%=      5-min Rain = 0
KSE2 161716Z 19007KT 14/01 A302 RMK A01 T01360011  RH  043%=      5-min Rain = 0
KSE2 161717Z 19004KT 14/01 A302 RMK A01 T01360014  RH  043%=      5-min Rain = 0
KSE2 161718Z 20005KT 14/02 A302 RMK A01 T01380017  RH  044%=      5-min Rain = 0
KSE2 161719Z 20005KT 14/01 A302 RMK A01 T01400011  RH  041%=      5-min Rain = 0
KSE2 161720Z 18006KT 14/01 A302 RMK A01 T01390011  RH  042%=      5-min Rain = 0
KSE2 161721Z 17006KT 14/01 A302 RMK A01 T01400011  RH  041%=      5-min Rain = 0
KSE2 161722Z 17006KT 14/01 A302 RMK A01 T01400013  RH  042%=      5-min Rain = 0
KSE2 161723Z 18005G10KT 14/01 A302 RMK A01 T01420013  RH  042%=      5-min Rain = 0
KSE2 161724Z 18007KT 14/01 A302 RMK A01 T01420011  RH  041%=      5-min Rain = 0
KSE2 161725Z 20008KT 14/01 A302 RMK A01 T01410009  RH  041%=      5-min Rain = 0
KSE2 161726Z 19009KT 14/01 A3019 RMK A01 T01390010  RH  041%=      5-min Rain = 0
KSE2 161727Z 17007KT 14/01 A3019 RMK A01 T01390012  RH  042%=      5-min Rain = 0
KSE2 161728Z 17008KT 14/01 A3019 RMK A01 T01400008  RH  041%=      5-min Rain = 0
KSE2 161729Z 18009KT 14/01 A3019 RMK A01 T01390010  RH  041%=      5-min Rain = 0
KSE2 161730Z 19006KT 14/01 A3019 RMK A01 T01390014  RH  043%=      5-min Rain = 0
KSE2 161731Z 20006KT 14/01 A3019 RMK A01 T01400014  RH  042%=      5-min Rain = 0
KSE2 161732Z 20005KT 14/01 A3019 RMK A01 T01400012  RH  042%=      5-min Rain = 0
KSE2 161733Z 17005KT 14/02 A3019 RMK A01 T01390016  RH  043%=      5-min Rain = 0
KSE2 161734Z 15006KT 14/01 A3019 RMK A01 T01400013  RH  042%=      5-min Rain = 0
KSE2 161735Z 15006KT 14/02 A3019 RMK A01 T01410015  RH  042%=      5-min Rain = 0
KSE2 161736Z 14007KT 14/01 A3019 RMK A01 T01420014  RH  042%=      5-min Rain = 0
KSE2 161737Z 15006KT 14/02 A3019 RMK A01 T01420018  RH  043%=      5-min Rain = 0
KSE2 161738Z 15006KT 14/02 A3019 RMK A01 T01440018  RH  042%=      5-min Rain = 0
KSE2 161739Z 15008KT 14/02 A3019 RMK A01 T01440017  RH  042%=      5-min Rain = 0
KSE2 161740Z 14008KT 14/01 A3018 RMK A01 T01430012  RH  041%=      5-min Rain = 0
KSE2 161741Z 16008KT 14/01 A3018 RMK A01 T01410013  RH  042%=      5-min Rain = 0
KSE2 161742Z 18006KT 14/02 A3018 RMK A01 T01420015  RH  042%=      5-min Rain = 0
KSE2 161743Z 17005KT 14/02 A3018 RMK A01 T01440016  RH  042%=      5-min Rain = 0
KSE2 161744Z 20004KT 15/02 A3018 RMK A01 T01470019  RH  042%=      5-min Rain = 0
KSE2 161745Z 21005KT 15/02 A3018 RMK A01 T01480019  RH  042%=      5-min Rain = 0
KSE2 161746Z 18004KT 15/02 A3018 RMK A01 T01470019  RH  042%=      5-min Rain = 0
KSE2 161747Z 17008KT 15/02 A3018 RMK A01 T01460016  RH  041%=      5-min Rain = 0
KSE2 161748Z 16007KT 15/02 A3018 RMK A01 T01450015  RH  041%=      5-min Rain = 0
KSE2 161749Z 14007KT 14/02 A3018 RMK A01 T01440015  RH  042%=      5-min Rain = 0
KSE2 161750Z 15006KT 14/02 A3018 RMK A01 T01440017  RH  042%=      5-min Rain = 0
KSE2 161751Z 16009KT 15/02 A3018 RMK A01 T01450017  RH  042%=      5-min Rain = 0
KSE2 161752Z 15006KT 15/02 A3018 RMK A01 T01450016  RH  041%=      5-min Rain = 0
KSE2 161753Z 16007KT 15/02 A3018 RMK A01 T01450016  RH  041%=      5-min Rain = 0
KSE2 161754Z 15009KT 15/02 A3018 RMK A01 T01460015  RH  041%=      5-min Rain = 0
KSE2 161755Z 17008KT 15/02 A3018 RMK A01 T01480016  RH  041%=      5-min Rain = 0
KSE2 161756Z 17006KT 15/02 A3018 RMK A01 T01490017  RH  041%=      5-min Rain = 0
KSE2 161757Z 17007KT 15/01 A3018 RMK A01 T01490013  RH  040%=      5-min Rain = 0
KSE2 161758Z 15008KT 15/01 A3018 RMK A01 T01490012  RH  039%=      5-min Rain = 0
KSE2 161759Z 17008KT 15/01 A3017 RMK A01 T01490014  RH  040%=      5-min Rain = 0
KSE2 161800Z 18007KT 15/01 A3017 RMK A01 T01480013  RH  040%=      5-min Rain = 0
KSE2 161801Z 17006KT 15/02 A3017 RMK A01 T01480015  RH  040%=      5-min Rain = 0
KSE2 161802Z 16006KT 15/02 A3017 RMK A01 T01490017  RH  041%=      5-min Rain = 0
KSE2 161803Z 16009KT 15/02 A3017 RMK A01 T01500018  RH  041%=      5-min Rain = 0
KSE2 161804Z 17008KT 15/01 A3017 RMK A01 T01500014  RH  040%=      5-min Rain = 0
KSE2 161805Z 17006KT 15/01 A3017 RMK A01 T01470013  RH  040%=      5-min Rain = 0
KSE2 161806Z 18007KT 15/02 A3017 RMK A01 T01470018  RH  041%=      5-min Rain = 0
KSE2 161807Z 19009KT 15/02 A3017 RMK A01 T01510021  RH  042%=      5-min Rain = 0
KSE2 161808Z 21007KT 15/02 A3017 RMK A01 T01500018  RH  041%=      5-min Rain = 0
KSE2 161809Z 20005KT 15/02 A3017 RMK A01 T01500022  RH  042%=      5-min Rain = 0
KSE2 161810Z 19008KT 15/02 A3017 RMK A01 T01520024  RH  042%=      5-min Rain = 0
KSE2 161811Z 19006KT 15/02 A3017 RMK A01 T01520023  RH  042%=      5-min Rain = 0
KSE2 161812Z 18005KT 15/03 A3017 RMK A01 T01520026  RH  042%=      5-min Rain = 0
KSE2 161813Z 18008KT 15/02 A3017 RMK A01 T01540022  RH  041%=      5-min Rain = 0
KSE2 161814Z 19010KT 15/02 A3016 RMK A01 T01530022  RH  041%=      5-min Rain = 0
KSE2 161815Z 19009KT 15/02 A3016 RMK A01 T01540020  RH  040%=      5-min Rain = 0
KSE2 161816Z 18008KT 15/02 A3016 RMK A01 T01530020  RH  041%=      5-min Rain = 0
KSE2 161817Z 19006KT 15/02 A3016 RMK A01 T01530018  RH  040%=      5-min Rain = 0
KSE2 161818Z 19008KT 15/02 A3016 RMK A01 T01530021  RH  041%=      5-min Rain = 0
KSE2 161819Z 19008KT 15/02 A3016 RMK A01 T01520019  RH  041%=      5-min Rain = 0
KSE2 161820Z 19007KT 15/02 A3016 RMK A01 T01530020  RH  041%=      5-min Rain = 0
KSE2 161821Z 20008KT 15/02 A3016 RMK A01 T01530021  RH  041%=      5-min Rain = 0
KSE2 161822Z 20008KT 15/02 A3016 RMK A01 T01540020  RH  040%=      5-min Rain = 0
KSE2 161823Z 17007KT 16/02 A3016 RMK A01 T01560022  RH  040%=      5-min Rain = 0
KSE2 161824Z 17006KT 16/02 A3016 RMK A01 T01580020  RH  039%=      5-min Rain = 0
KSE2 161825Z 21006KT 16/02 A3016 RMK A01 T01600022  RH  039%=      5-min Rain = 0
KSE2 161826Z 21006KT 16/02 A3016 RMK A01 T01600018  RH  038%=      5-min Rain = 0
KSE2 161827Z 17007KT 16/02 A3016 RMK A01 T01590019  RH  039%=      5-min Rain = 0
KSE2 161828Z 18007KT 16/02 A3016 RMK A01 T01610020  RH  039%=      5-min Rain = 0
KSE2 161829Z 18009KT 16/02 A3016 RMK A01 T01620015  RH  037%=      5-min Rain = 0
KSE2 161830Z 18010KT 16/01 A3016 RMK A01 T01610014  RH  037%=      5-min Rain = 0
KSE2 161831Z 17009KT 16/02 A3016 RMK A01 T01610015  RH  037%=      5-min Rain = 0
KSE2 161832Z 15012KT 16/01 A3015 RMK A01 T01590010  RH  036%=      5-min Rain = 0
KSE2 161833Z 19008G14KT 16/01 A3015 RMK A01 T01550014  RH  038%=      5-min Rain = 0
KSE2 161834Z 20008KT 16/02 A3016 RMK A01 T01570016  RH  038%=      5-min Rain = 0
KSE2 161835Z 19008KT 16/02 A3015 RMK A01 T01570017  RH  039%=      5-min Rain = 0
KSE2 161836Z 18006KT 16/02 A3015 RMK A01 T01610022  RH  039%=      5-min Rain = 0
KSE2 161837Z 17005KT 16/02 A3015 RMK A01 T01630019  RH  038%=      5-min Rain = 0
KSE2 161838Z 18007G13KT 17/02 A3015 RMK A01 T01660024  RH  039%=      5-min Rain = 0
KSE2 161839Z 19010KT 17/02 A3015 RMK A01 T01680019  RH  036%=      5-min Rain = 0
KSE2 161840Z 19009KT 17/01 A3015 RMK A01 T01650013  RH  036%=      5-min Rain = 0
KSE2 161841Z 19011KT 16/01 A3015 RMK A01 T01610012  RH  037%=      5-min Rain = 0
KSE2 161842Z 18008KT 16/01 A3015 RMK A01 T01600013  RH  037%=      5-min Rain = 0
KSE2 161843Z 19008KT 16/01 A3015 RMK A01 T01610014  RH  037%=      5-min Rain = 0
KSE2 161844Z 16010KT 16/01 A3015 RMK A01 T01630012  RH  036%=      5-min Rain = 0
KSE2 161845Z 16012KT 16/01 A3015 RMK A01 T01630010  RH  036%=      5-min Rain = 0
KSE2 161846Z 16012KT 16/01 A3015 RMK A01 T01620009  RH  035%=      5-min Rain = 0
KSE2 161847Z 15010KT 16/01 A3015 RMK A01 T01620012  RH  036%=      5-min Rain = 0
KSE2 161848Z 15007KT 16/01 A3015 RMK A01 T01610009  RH  036%=      5-min Rain = 0
KSE2 161849Z 18008KT 16/01 A3015 RMK A01 T01610013  RH  037%=      5-min Rain = 0
KSE2 161850Z 20008KT 17/02 A3015 RMK A01 T01650020  RH  037%=      5-min Rain = 0
KSE2 161851Z 21009KT 17/02 A3015 RMK A01 T01670016  RH  036%=      5-min Rain = 0
KSE2 161852Z 19006KT 17/02 A3015 RMK A01 T01660018  RH  037%=      5-min Rain = 0
KSE2 161853Z 21010KT 17/01 A3015 RMK A01 T01670014  RH  036%=      5-min Rain = 0
KSE2 161854Z 19011KT 17/01 A3015 RMK A01 T01660010  RH  035%=      5-min Rain = 0
KSE2 161855Z 18008G13KT 17/01 A3015 RMK A01 T01660009  RH  035%=      5-min Rain = 0
KSE2 161856Z 18010KT 17/01 A3015 RMK A01 T01660011  RH  035%=      5-min Rain = 0
KSE2 161857Z 16008KT 16/01 A3015 RMK A01 T01640010  RH  035%=      5-min Rain = 0
KSE2 161858Z 14009KT 16/01 A3014 RMK A01 T01640012  RH  036%=      5-min Rain = 0
KSE2 161859Z 14008KT 16/01 A3014 RMK A01 T01630011  RH  036%=      5-min Rain = 0
KSE2 161900Z 15006KT 16/01 A3014 RMK A01 T01620014  RH  037%=      5-min Rain = 0
KSE2 161901Z 16007G12KT 17/02 A3014 RMK A01 T01650017  RH  037%=      5-min Rain = 0
KSE2 161902Z 17011G16KT 17/01 A3014 RMK A01 T01670013  RH  035%=      5-min Rain = 0
KSE2 161903Z 19010KT 17/01 A3014 RMK A01 T01670012  RH  035%=      5-min Rain = 0
KSE2 161904Z 18011KT 17/01 A3014 RMK A01 T01670007  RH  034%=      5-min Rain = 0
KSE2 161905Z 20011G16KT 17/01 A3014 RMK A01 T01670009  RH  034%=      5-min Rain = 0
KSE2 161906Z 19010KT 17/01 A3014 RMK A01 T01680009  RH  034%=      5-min Rain = 0
KSE2 161907Z 19010KT 17/01 A3014 RMK A01 T01680010  RH  034%=      5-min Rain = 0
KSE2 161908Z 19007KT 17/01 A3014 RMK A01 T01680012  RH  035%=      5-min Rain = 0
KSE2 161909Z 18009KT 17/01 A3013 RMK A01 T01690013  RH  035%=      5-min Rain = 0
KSE2 161910Z 17011KT 17/01 A3013 RMK A01 T01690009  RH  034%=      5-min Rain = 0
KSE2 161911Z 16009KT 17/01 A3013 RMK A01 T01690010  RH  034%=      5-min Rain = 0
KSE2 161912Z 15011KT 17/01 A3013 RMK A01 T01680009  RH  034%=      5-min Rain = 0
KSE2 161913Z 17007KT 17/01 A3013 RMK A01 T01670008  RH  034%=      5-min Rain = 0
KSE2 161914Z 18008KT 17/01 A3013 RMK A01 T01670012  RH  035%=      5-min Rain = 0
KSE2 161915Z 21008KT 17/01 A3013 RMK A01 T01690010  RH  034%=      5-min Rain = 0
KSE2 161916Z 20010KT 17/01 A3013 RMK A01 T01700010  RH  034%=      5-min Rain = 0
KSE2 161917Z 20009KT 17/01 A3013 RMK A01 T01700009  RH  034%=      5-min Rain = 0
KSE2 161918Z 20010KT 17/01 A3013 RMK A01 T01700012  RH  034%=      5-min Rain = 0
KSE2 161919Z 20010KT 17/01 A3013 RMK A01 T01700008  RH  033%=      5-min Rain = 0
KSE2 161920Z 18007KT 17/01 A3013 RMK A01 T01680011  RH  034%=      5-min Rain = 0
KSE2 161921Z 17004KT 17/01 A3013 RMK A01 T01690012  RH  035%=      5-min Rain = 0
KSE2 161922Z 17007KT 17/01 A3013 RMK A01 T01700012  RH  035%=      5-min Rain = 0
KSE2 161923Z 19005KT 17/02 A3013 RMK A01 T01710016  RH  035%=      5-min Rain = 0
KSE2 161924Z 19010G15KT 18/02 A3013 RMK A01 T01750016  RH  034%=      5-min Rain = 0
KSE2 161925Z 18009KT 18/01 A3013 RMK A01 T01760011  RH  033%=      5-min Rain = 0
KSE2 161926Z 19008KT 18/01 A3012 RMK A01 T01750012  RH  033%=      5-min Rain = 0
KSE2 161927Z 20010KT 18/01 A3012 RMK A01 T01760012  RH  033%=      5-min Rain = 0
KSE2 161928Z 21010KT 17/00 A3012 RMK A01 T01740003  RH  031%=      5-min Rain = 0
KSE2 161929Z 20009G14KT 17/01 A3012 RMK A01 T01720005  RH  032%=      5-min Rain = 0
KSE2 161930Z 20011KT 17/01 A3012 RMK A01 T01730006  RH  032%=      5-min Rain = 0
KSE2 161931Z 21011KT 17/01 A3012 RMK A01 T01740008  RH  033%=      5-min Rain = 0
KSE2 161932Z 20011KT 17/01 A3012 RMK A01 T01740008  RH  033%=      5-min Rain = 0
KSE2 161933Z 19010KT 17/01 A3012 RMK A01 T01730007  RH  033%=      5-min Rain = 0
KSE2 161934Z 18007KT 17/01 A3012 RMK A01 T01730010  RH  033%=      5-min Rain = 0
KSE2 161935Z 20010G15KT 17/01 A3012 RMK A01 T01730008  RH  033%=      5-min Rain = 0
KSE2 161936Z 18009KT 17/01 A3012 RMK A01 T01740009  RH  033%=      5-min Rain = 0
KSE2 161937Z 20009KT 18/01 A3012 RMK A01 T01750006  RH  032%=      5-min Rain = 0
KSE2 161938Z 18011G16KT 18/00 A3011 RMK A01 T01750004  RH  031%=      5-min Rain = 0
KSE2 161939Z 18007G12KT 18/01 A3011 RMK A01 T01760007  RH  032%=      5-min Rain = 0
KSE2 161940Z 19008KT 18/01 A3011 RMK A01 T01770012  RH  033%=      5-min Rain = 0
KSE2 161941Z 21009G14KT 18/01 A3011 RMK A01 T01780006  RH  031%=      5-min Rain = 0
KSE2 161942Z 21011KT 18/M00 A3011 RMK A01 T01781002  RH  030%=      5-min Rain = 0
KSE2 161943Z 20009KT 18/M01 A3011 RMK A01 T01751008  RH  029%=      5-min Rain = 0
KSE2 161944Z 20011KT 18/M00 A3011 RMK A01 T01761004  RH  030%=      5-min Rain = 0
KSE2 161945Z 19006G12KT 18/M01 A3011 RMK A01 T01771005  RH  029%=      5-min Rain = 0
KSE2 161946Z 19008KT 18/M00 A3011 RMK A01 T01781002  RH  030%=      5-min Rain = 0
KSE2 161947Z 18006KT 18/M00 A3011 RMK A01 T01771001  RH  030%=      5-min Rain = 0
KSE2 161948Z 18010G16KT 18/M00 A3011 RMK A01 T01771001  RH  030%=      5-min Rain = 0
KSE2 161949Z 19012KT 18/M01 A3011 RMK A01 T01761008  RH  029%=      5-min Rain = 0
KSE2 161950Z 19013KT 17/M01 A3011 RMK A01 T01731010  RH  029%=      5-min Rain = 0
KSE2 161951Z 20009KT 17/M01 A3011 RMK A01 T01711011  RH  029%=      5-min Rain = 0
KSE2 161952Z 19012KT 17/M01 A3011 RMK A01 T01711010  RH  029%=      5-min Rain = 0
KSE2 161953Z 19011KT 17/M01 A3011 RMK A01 T01701012  RH  029%=      5-min Rain = 0
KSE2 161954Z 17008KT 17/M01 A3011 RMK A01 T01691008  RH  030%=      5-min Rain = 0
KSE2 161955Z 20009KT 17/M00 A3011 RMK A01 T01711002  RH  031%=      5-min Rain = 0
KSE2 161956Z 20011KT 17/M01 A3011 RMK A01 T01721007  RH  030%=      5-min Rain = 0
KSE2 161957Z 21011G16KT 17/M01 A3011 RMK A01 T01701008  RH  030%=      5-min Rain = 0
KSE2 161958Z 20012KT 17/M01 A3011 RMK A01 T01681005  RH  031%=      5-min Rain = 0
KSE2 161959Z 19013KT 17/M00 A3011 RMK A01 T01671002  RH  032%=      5-min Rain = 0
KSE2 162000Z 18011KT 17/00 A3011 RMK A01 T01660001  RH  033%=      5-min Rain = 0
KSE2 162001Z 19010KT 17/01 A301 RMK A01 T01650005  RH  034%=      5-min Rain = 0
KSE2 162002Z 17010KT 17/01 A301 RMK A01 T01660006  RH  034%=      5-min Rain = 0
KSE2 162003Z 18012G18KT 17/00 A301 RMK A01 T01660002  RH  033%=      5-min Rain = 0
KSE2 162004Z 18012KT 16/M00 A301 RMK A01 T01641003  RH  032%=      5-min Rain = 0
KSE2 162005Z 18011KT 16/M00 A301 RMK A01 T01631004  RH  032%=      5-min Rain = 0
KSE2 162006Z 18012G17KT 16/M00 A301 RMK A01 T01631003  RH  032%=      5-min Rain = 0
KSE2 162007Z 17011KT 16/M00 A301 RMK A01 T01631001  RH  033%=      5-min Rain = 0
KSE2 162008Z 17009KT 16/00 A301 RMK A01 T01630000  RH  033%=      5-min Rain = 0
KSE2 162009Z 17009KT 16/00 A301 RMK A01 T01630001  RH  033%=      5-min Rain = 0
KSE2 162010Z 18007KT 16/00 A301 RMK A01 T01630002  RH  034%=      5-min Rain = 0
KSE2 162011Z 18007KT 16/00 A301 RMK A01 T01640004  RH  034%=      5-min Rain = 0
KSE2 162012Z 19009KT 16/00 A301 RMK A01 T01640002  RH  033%=      5-min Rain = 0
KSE2 162013Z 18008KT 16/00 A301 RMK A01 T01640004  RH  034%=      5-min Rain = 0
KSE2 162014Z 18006KT 17/00 A301 RMK A01 T01650004  RH  034%=      5-min Rain = 0
KSE2 162015Z 19008KT 17/00 A301 RMK A01 T01660004  RH  033%=      5-min Rain = 0
KSE2 162016Z 18006KT 17/01 A301 RMK A01 T01670005  RH  033%=      5-min Rain = 0
KSE2 162017Z 19006KT 17/01 A301 RMK A01 T01680006  RH  034%=      5-min Rain = 0
KSE2 162018Z 19006KT 17/01 A301 RMK A01 T01680008  RH  034%=      5-min Rain = 0
KSE2 162019Z 18006KT 17/01 A301 RMK A01 T01680009  RH  034%=      5-min Rain = 0
KSE2 162020Z 16010KT 17/01 A301 RMK A01 T01680006  RH  033%=      5-min Rain = 0
KSE2 162021Z 16010KT 17/01 A301 RMK A01 T01670005  RH  033%=      5-min Rain = 0
KSE2 162022Z 16010KT 17/01 A301 RMK A01 T01660007  RH  034%=      5-min Rain = 0
KSE2 162023Z 17009G14KT 17/01 A301 RMK A01 T01650006  RH  034%=      5-min Rain = 0
KSE2 162024Z 17009KT 16/01 A301 RMK A01 T01640008  RH  035%=      5-min Rain = 0
KSE2 162025Z 16009KT 16/01 A301 RMK A01 T01640007  RH  035%=      5-min Rain = 0
KSE2 162026Z 16011KT 16/01 A301 RMK A01 T01640008  RH  035%=      5-min Rain = 0
KSE2 162027Z 18009KT 16/01 A301 RMK A01 T01640011  RH  035%=      5-min Rain = 0
KSE2 162028Z 17009KT 17/01 A301 RMK A01 T01650013  RH  036%=      5-min Rain = 0
KSE2 162029Z 18010KT 17/01 A3009 RMK A01 T01650014  RH  036%=      5-min Rain = 0
KSE2 162030Z 19010KT 16/01 A3009 RMK A01 T01640012  RH  036%=      5-min Rain = 0
KSE2 162031Z 19009KT 16/01 A3009 RMK A01 T01640013  RH  036%=      5-min Rain = 0
KSE2 162032Z 19009KT 16/01 A3009 RMK A01 T01640013  RH  036%=      5-min Rain = 0
KSE2 162033Z 17007KT 16/01 A3009 RMK A01 T01640012  RH  036%=      5-min Rain = 0
KSE2 162034Z 16010KT 17/01 A3009 RMK A01 T01650013  RH  036%=      5-min Rain = 0
KSE2 162035Z 18010KT 17/01 A3009 RMK A01 T01660008  RH  034%=      5-min Rain = 0
KSE2 162036Z 18007KT 17/01 A3009 RMK A01 T01650008  RH  035%=      5-min Rain = 0
KSE2 162037Z 20006KT 17/01 A3009 RMK A01 T01650010  RH  035%=      5-min Rain = 0
KSE2 162038Z 20009KT 17/01 A3009 RMK A01 T01660011  RH  035%=      5-min Rain = 0
KSE2 162039Z 18011KT 17/01 A3009 RMK A01 T01660011  RH  035%=      5-min Rain = 0
KSE2 162040Z 18008KT 17/01 A3009 RMK A01 T01660012  RH  035%=      5-min Rain = 0
KSE2 162041Z 19007KT 17/01 A3009 RMK A01 T01660014  RH  036%=      5-min Rain = 0
KSE2 162042Z 20006KT 17/02 A3009 RMK A01 T01660015  RH  036%=      5-min Rain = 0
KSE2 162043Z 18007G12KT 17/02 A3009 RMK A01 T01670017  RH  036%=      5-min Rain = 0
KSE2 162044Z 17008KT 17/02 A3009 RMK A01 T01680016  RH  036%=      5-min Rain = 0
KSE2 162045Z 18009KT 17/02 A301 RMK A01 T01680018  RH  036%=      5-min Rain = 0
KSE2 162046Z 19008KT 17/02 A301 RMK A01 T01680019  RH  037%=      5-min Rain = 0
KSE2 162047Z 18006KT 17/02 A301 RMK A01 T01680019  RH  037%=      5-min Rain = 0
KSE2 162048Z 19009KT 17/02 A3009 RMK A01 T01690018  RH  036%=      5-min Rain = 0
KSE2 162049Z 17009KT 17/02 A3009 RMK A01 T01670016  RH  036%=      5-min Rain = 0
KSE2 162050Z 16012KT 17/02 A3009 RMK A01 T01650016  RH  036%=      5-min Rain = 0
KSE2 162051Z 17010KT 17/02 A3009 RMK A01 T01650019  RH  037%=      5-min Rain = 0
KSE2 162052Z 18010KT 17/02 A3009 RMK A01 T01650017  RH  037%=      5-min Rain = 0
KSE2 162053Z 18011KT 17/02 A3009 RMK A01 T01650018  RH  037%=      5-min Rain = 0
KSE2 162054Z 17009KT 17/02 A3009 RMK A01 T01650018  RH  037%=      5-min Rain = 0
KSE2 162055Z 14009KT 16/02 A3009 RMK A01 T01640018  RH  037%=      5-min Rain = 0
KSE2 162056Z 16007KT 16/02 A3009 RMK A01 T01640021  RH  038%=      5-min Rain = 0
KSE2 162057Z 17007KT 16/02 A3009 RMK A01 T01640024  RH  039%=      5-min Rain = 0
KSE2 162058Z 18011KT 17/02 A3009 RMK A01 T01660022  RH  038%=      5-min Rain = 0
KSE2 162059Z 17011KT 17/02 A3009 RMK A01 T01650022  RH  038%=      5-min Rain = 0
KSE2 162100Z 17011KT 16/02 A3009 RMK A01 T01630021  RH  038%=      5-min Rain = 0
KSE2 162101Z 18008KT 16/02 A3009 RMK A01 T01620021  RH  039%=      5-min Rain = 0
KSE2 162102Z 19009KT 16/02 A3009 RMK A01 T01620023  RH  039%=      5-min Rain = 0
KSE2 162103Z 19008KT 16/02 A3009 RMK A01 T01630024  RH  039%=      5-min Rain = 0
KSE2 162104Z 17007KT 16/02 A3009 RMK A01 T01630024  RH  039%=      5-min Rain = 0
KSE2 162105Z 17010KT 16/03 A3009 RMK A01 T01630025  RH  039%=      5-min Rain = 0
KSE2 162106Z 18006KT 16/03 A3009 RMK A01 T01640025  RH  039%=      5-min Rain = 0
KSE2 162107Z 17007KT 16/03 A3009 RMK A01 T01640025  RH  039%=      5-min Rain = 0
KSE2 162108Z 17007KT 16/03 A3009 RMK A01 T01630025  RH  039%=      5-min Rain = 0
KSE2 162109Z 16008KT 16/02 A3009 RMK A01 T01630022  RH  039%=      5-min Rain = 0
KSE2 162110Z 16007KT 16/03 A3009 RMK A01 T01620026  RH  040%=      5-min Rain = 0
KSE2 162111Z 16008KT 16/02 A3009 RMK A01 T01620024  RH  039%=      5-min Rain = 0
KSE2 162112Z 17008KT 16/02 A3008 RMK A01 T01620023  RH  039%=      5-min Rain = 0
KSE2 162113Z 17006KT 16/02 A3008 RMK A01 T01620024  RH  039%=      5-min Rain = 0
KSE2 162114Z 17006KT 16/03 A3008 RMK A01 T01630027  RH  040%=      5-min Rain = 0
KSE2 162115Z 17008KT 16/02 A3008 RMK A01 T01630024  RH  039%=      5-min Rain = 0
KSE2 162116Z 16007KT 16/02 A3008 RMK A01 T01630024  RH  039%=      5-min Rain = 0
KSE2 162117Z 18008KT 16/03 A3008 RMK A01 T01630027  RH  040%=      5-min Rain = 0
KSE2 162118Z 19008KT 16/03 A3008 RMK A01 T01640028  RH  040%=      5-min Rain = 0
KSE2 162119Z 18007KT 16/03 A3008 RMK A01 T01640029  RH  041%=      5-min Rain = 0
KSE2 162120Z 18006KT 16/03 A3008 RMK A01 T01640030  RH  041%=      5-min Rain = 0
KSE2 162121Z 18008KT 16/03 A3008 RMK A01 T01640031  RH  041%=      5-min Rain = 0
KSE2 162122Z 19009KT 16/03 A3008 RMK A01 T01640030  RH  041%=      5-min Rain = 0
KSE2 162123Z 20007KT 16/03 A3008 RMK A01 T01630029  RH  041%=      5-min Rain = 0
KSE2 162124Z 18008KT 16/03 A3008 RMK A01 T01620029  RH  041%=      5-min Rain = 0
KSE2 162125Z 18008KT 16/03 A3008 RMK A01 T01610029  RH  041%=      5-min Rain = 0
KSE2 162126Z 20007KT 16/03 A3008 RMK A01 T01610031  RH  042%=      5-min Rain = 0
KSE2 162127Z 19008KT 16/03 A3008 RMK A01 T01610029  RH  041%=      5-min Rain = 0
KSE2 162128Z 17007G12KT 16/03 A3008 RMK A01 T01610031  RH  042%=      5-min Rain = 0
KSE2 162129Z 17009G14KT 16/03 A3008 RMK A01 T01610029  RH  041%=      5-min Rain = 0
KSE2 162130Z 17007G13KT 16/03 A3008 RMK A01 T01600030  RH  042%=      5-min Rain = 0
KSE2 162131Z 17006G11KT 16/03 A3008 RMK A01 T01600031  RH  042%=      5-min Rain = 0
KSE2 162132Z 17010KT 16/03 A3008 RMK A01 T01600031  RH  042%=      5-min Rain = 0
KSE2 162133Z 17009KT 16/03 A3008 RMK A01 T01590028  RH  041%=      5-min Rain = 0
KSE2 162134Z 18008KT 16/03 A3008 RMK A01 T01580029  RH  042%=      5-min Rain = 0
KSE2 162135Z 18009KT 16/03 A3008 RMK A01 T01580029  RH  042%=      5-min Rain = 0
KSE2 162136Z 16008KT 16/03 A3008 RMK A01 T01580029  RH  042%=      5-min Rain = 0
KSE2 162137Z 17008KT 16/03 A3008 RMK A01 T01580029  RH  042%=      5-min Rain = 0
KSE2 162138Z 19009KT 16/03 A3008 RMK A01 T01580031  RH  043%=      5-min Rain = 0
KSE2 162139Z 18009KT 16/03 A3008 RMK A01 T01580030  RH  042%=      5-min Rain = 0
KSE2 162140Z 17007KT 16/03 A3008 RMK A01 T01570031  RH  043%=      5-min Rain = 0
KSE2 162141Z 18009KT 16/03 A3008 RMK A01 T01570030  RH  042%=      5-min Rain = 0
KSE2 162142Z 18008KT 16/03 A3008 RMK A01 T01570030  RH  043%=      5-min Rain = 0
KSE2 162143Z 16008KT 16/03 A3008 RMK A01 T01570030  RH  043%=      5-min Rain = 0
KSE2 162144Z 17007KT 16/03 A3008 RMK A01 T01560032  RH  043%=      5-min Rain = 0
KSE2 162145Z 18008KT 16/03 A3008 RMK A01 T01570031  RH  043%=      5-min Rain = 0
KSE2 162146Z 18007KT 16/03 A3008 RMK A01 T01570030  RH  043%=      5-min Rain = 0
KSE2 162147Z 18007KT 16/03 A3008 RMK A01 T01560031  RH  043%=      5-min Rain = 0
KSE2 162148Z 18006KT 16/03 A3008 RMK A01 T01560032  RH  043%=      5-min Rain = 0
KSE2 162149Z 18005KT 16/03 A3008 RMK A01 T01570033  RH  044%=      5-min Rain = 0
KSE2 162150Z 18005KT 16/04 A3008 RMK A01 T01570035  RH  044%=      5-min Rain = 0
KSE2 162151Z 19006KT 16/04 A3008 RMK A01 T01580035  RH  044%=      5-min Rain = 0
KSE2 162152Z 20007KT 16/04 A3008 RMK A01 T01590036  RH  044%=      5-min Rain = 0
KSE2 162153Z 20008KT 16/04 A3008 RMK A01 T01580035  RH  044%=      5-min Rain = 0
KSE2 162154Z 21006KT 16/03 A3008 RMK A01 T01580034  RH  043%=      5-min Rain = 0
KSE2 162155Z 20007KT 16/03 A3008 RMK A01 T01580034  RH  043%=      5-min Rain = 0
KSE2 162156Z 20005KT 16/03 A3008 RMK A01 T01580033  RH  043%=      5-min Rain = 0
KSE2 162157Z 19006KT 16/04 A3008 RMK A01 T01580037  RH  044%=      5-min Rain = 0
KSE2 162158Z 20007KT 16/04 A3009 RMK A01 T01580036  RH  044%=      5-min Rain = 0
KSE2 162159Z 19007KT 16/04 A3009 RMK A01 T01580035  RH  044%=      5-min Rain = 0
KSE2 162200Z 18006KT 16/04 A3009 RMK A01 T01580035  RH  044%=      5-min Rain = 0
KSE2 162201Z 18007KT 16/03 A3009 RMK A01 T01580034  RH  043%=      5-min Rain = 0
KSE2 162202Z 19006KT 16/04 A3009 RMK A01 T01580035  RH  044%=      5-min Rain = 0
KSE2 162203Z 18007KT 16/04 A3009 RMK A01 T01580035  RH  044%=      5-min Rain = 0
KSE2 162204Z 17006KT 16/04 A3009 RMK A01 T01580036  RH  044%=      5-min Rain = 0
KSE2 162205Z 18008KT 16/04 A3009 RMK A01 T01580036  RH  044%=      5-min Rain = 0
KSE2 162206Z 18009KT 16/03 A3009 RMK A01 T01580034  RH  043%=      5-min Rain = 0
KSE2 162207Z 18008KT 16/03 A3009 RMK A01 T01580033  RH  043%=      5-min Rain = 0
KSE2 162208Z 18005KT 16/03 A3009 RMK A01 T01570034  RH  044%=      5-min Rain = 0
KSE2 162209Z 19006KT 16/04 A3009 RMK A01 T01570036  RH  044%=      5-min Rain = 0
KSE2 162210Z 19008KT 16/04 A3009 RMK A01 T01580036  RH  044%=      5-min Rain = 0
KSE2 162211Z 19007KT 16/04 A3009 RMK A01 T01580035  RH  044%=      5-min Rain = 0
KSE2 162212Z 19005KT 16/04 A3009 RMK A01 T01580035  RH  044%=      5-min Rain = 0
KSE2 162213Z 17008KT 16/04 A3009 RMK A01 T01580035  RH  044%=      5-min Rain = 0
KSE2 162214Z 18007KT 16/03 A3009 RMK A01 T01580033  RH  043%=      5-min Rain = 0
KSE2 162215Z 18006KT 16/03 A3009 RMK A01 T01570034  RH  044%=      5-min Rain = 0
KSE2 162216Z 18004KT 16/04 A3009 RMK A01 T01580035  RH  044%=      5-min Rain = 0
KSE2 162217Z 18004KT 16/04 A3009 RMK A01 T01570036  RH  044%=      5-min Rain = 0
KSE2 162218Z 18005KT 16/04 A3009 RMK A01 T01570035  RH  044%=      5-min Rain = 0
KSE2 162219Z 16006KT 16/04 A3008 RMK A01 T01580035  RH  044%=      5-min Rain = 0
KSE2 162220Z 16006KT 16/03 A3008 RMK A01 T01570034  RH  043%=      5-min Rain = 0
KSE2 162221Z 18005KT 16/03 A3008 RMK A01 T01570034  RH  044%=      5-min Rain = 0
KSE2 162222Z 18006KT 16/04 A3008 RMK A01 T01570036  RH  044%=      5-min Rain = 0
KSE2 162223Z 19008KT 16/04 A3008 RMK A01 T01570035  RH  044%=      5-min Rain = 0
KSE2 162224Z 18006KT 16/03 A3008 RMK A01 T01570034  RH  044%=      5-min Rain = 0
KSE2 162225Z 18005KT 16/04 A3008 RMK A01 T01570037  RH  045%=      5-min Rain = 0
KSE2 162226Z 18004KT 16/04 A3008 RMK A01 T01560038  RH  045%=      5-min Rain = 0
KSE2 162227Z 15006KT 16/04 A3008 RMK A01 T01560037  RH  045%=      5-min Rain = 0
KSE2 162228Z 17006KT 16/04 A3007 RMK A01 T01560037  RH  045%=      5-min Rain = 0
KSE2 162229Z 16007KT 16/04 A3007 RMK A01 T01560036  RH  045%=      5-min Rain = 0
KSE2 162230Z 15006KT 16/04 A3007 RMK A01 T01550035  RH  045%=      5-min Rain = 0
KSE2 162231Z 17007KT 16/04 A3007 RMK A01 T01550035  RH  045%=      5-min Rain = 0
KSE2 162232Z 18008KT 16/03 A3007 RMK A01 T01550034  RH  044%=      5-min Rain = 0
KSE2 162233Z 18007KT 15/04 A3007 RMK A01 T01540035  RH  045%=      5-min Rain = 0
KSE2 162234Z 17007KT 15/04 A3007 RMK A01 T01540035  RH  045%=      5-min Rain = 0
KSE2 162235Z 17008KT 15/04 A3007 RMK A01 T01540035  RH  045%=      5-min Rain = 0
KSE2 162236Z 17006KT 15/04 A3007 RMK A01 T01540036  RH  045%=      5-min Rain = 0
KSE2 162237Z 18008KT 15/04 A3007 RMK A01 T01540036  RH  045%=      5-min Rain = 0
KSE2 162238Z 18005KT 15/04 A3007 RMK A01 T01540037  RH  046%=      5-min Rain = 0
KSE2 162239Z 18006KT 15/04 A3007 RMK A01 T01540038  RH  046%=      5-min Rain = 0
KSE2 162240Z 18006KT 15/04 A3007 RMK A01 T01540037  RH  046%=      5-min Rain = 0
KSE2 162241Z 19008KT 15/04 A3007 RMK A01 T01540037  RH  046%=      5-min Rain = 0
KSE2 162242Z 18005KT 15/04 A3007 RMK A01 T01530037  RH  046%=      5-min Rain = 0
KSE2 162243Z 18006KT 15/04 A3007 RMK A01 T01530037  RH  046%=      5-min Rain = 0
KSE2 162244Z 18005KT 15/04 A3008 RMK A01 T01530038  RH  046%=      5-min Rain = 0
KSE2 162245Z 18005KT 15/04 A3008 RMK A01 T01530039  RH  046%=      5-min Rain = 0
KSE2 162246Z 17005KT 15/04 A3008 RMK A01 T01520038  RH  046%=      5-min Rain = 0
KSE2 162247Z 17005KT 15/04 A3008 RMK A01 T01520038  RH  046%=      5-min Rain = 0
KSE2 162248Z 18005KT 15/04 A3008 RMK A01 T01520038  RH  046%=      5-min Rain = 0
KSE2 162249Z 17006KT 15/04 A3008 RMK A01 T01510037  RH  046%=      5-min Rain = 0
KSE2 162250Z 19005KT 15/04 A3008 RMK A01 T01510037  RH  046%=      5-min Rain = 0
KSE2 162251Z 17005KT 15/04 A3008 RMK A01 T01510037  RH  047%=      5-min Rain = 0
KSE2 162252Z 17008KT 15/04 A3008 RMK A01 T01500036  RH  046%=      5-min Rain = 0
KSE2 162253Z 17008KT 15/03 A3008 RMK A01 T01500033  RH  045%=      5-min Rain = 0
KSE2 162254Z 17008KT 15/03 A3008 RMK A01 T01500032  RH  045%=      5-min Rain = 0
KSE2 162255Z 16006KT 15/03 A3008 RMK A01 T01500033  RH  045%=      5-min Rain = 0
KSE2 162256Z 16007KT 15/03 A3008 RMK A01 T01500034  RH  046%=      5-min Rain = 0
KSE2 162257Z 17006KT 15/03 A3008 RMK A01 T01490034  RH  046%=      5-min Rain = 0
KSE2 162258Z 17007KT 15/03 A3008 RMK A01 T01490033  RH  046%=      5-min Rain = 0
KSE2 162259Z 18005KT 15/03 A3008 RMK A01 T01490033  RH  046%=      5-min Rain = 0
KSE2 162300Z 17005KT 15/03 A3008 RMK A01 T01480034  RH  046%=      5-min Rain = 0
KSE2 162301Z 16006KT 15/04 A3008 RMK A01 T01480035  RH  047%=      5-min Rain = 0
KSE2 162302Z 16006KT 15/03 A3008 RMK A01 T01470034  RH  046%=      5-min Rain = 0
KSE2 162303Z 16007KT 15/03 A3008 RMK A01 T01480034  RH  046%=      5-min Rain = 0
KSE2 162304Z 16005KT 15/03 A3008 RMK A01 T01470034  RH  046%=      5-min Rain = 0
KSE2 162305Z 17007KT 15/04 A3008 RMK A01 T01470035  RH  047%=      5-min Rain = 0
KSE2 162306Z 17008KT 15/03 A3008 RMK A01 T01460034  RH  047%=      5-min Rain = 0
KSE2 162307Z 17007KT 15/04 A3008 RMK A01 T01460035  RH  047%=      5-min Rain = 0
KSE2 162308Z 17006KT 15/03 A3008 RMK A01 T01460034  RH  047%=      5-min Rain = 0
KSE2 162309Z 17006KT 15/04 A3008 RMK A01 T01460035  RH  047%=      5-min Rain = 0
KSE2 162310Z 17006KT 15/03 A3008 RMK A01 T01450034  RH  047%=      5-min Rain = 0
KSE2 162311Z 17006KT 15/04 A3008 RMK A01 T01450035  RH  047%=      5-min Rain = 0
KSE2 162312Z 17007KT 14/03 A3008 RMK A01 T01440034  RH  047%=      5-min Rain = 0
KSE2 162313Z 17007KT 15/03 A3008 RMK A01 T01450034  RH  047%=      5-min Rain = 0
KSE2 162314Z 18007KT 14/03 A3008 RMK A01 T01440034  RH  047%=      5-min Rain = 0
KSE2 162315Z 18005KT 14/03 A3008 RMK A01 T01440034  RH  047%=      5-min Rain = 0
KSE2 162316Z 17005KT 14/03 A3008 RMK A01 T01440034  RH  048%=      5-min Rain = 0
KSE2 162317Z 16006KT 14/03 A3008 RMK A01 T01430034  RH  048%=      5-min Rain = 0
KSE2 162318Z 17006KT 14/03 A3008 RMK A01 T01430034  RH  048%=      5-min Rain = 0
KSE2 162319Z 17005KT 14/03 A3008 RMK A01 T01430034  RH  048%=      5-min Rain = 0
KSE2 162320Z 17005KT 14/04 A3008 RMK A01 T01430035  RH  048%=      5-min Rain = 0
KSE2 162321Z 17006KT 14/03 A3008 RMK A01 T01420034  RH  048%=      5-min Rain = 0
KSE2 162322Z 16006KT 14/03 A3008 RMK A01 T01410034  RH  048%=      5-min Rain = 0
KSE2 162323Z 17006KT 14/03 A3008 RMK A01 T01410034  RH  048%=      5-min Rain = 0
KSE2 162324Z 16005KT 14/03 A3008 RMK A01 T01410033  RH  048%=      5-min Rain = 0
KSE2 162325Z 16005KT 14/03 A3008 RMK A01 T01410034  RH  048%=      5-min Rain = 0
KSE2 162326Z 17005KT 14/03 A3008 RMK A01 T01410033  RH  048%=      5-min Rain = 0
KSE2 162327Z 17006KT 14/03 A3008 RMK A01 T01400033  RH  048%=      5-min Rain = 0
KSE2 162328Z 16006KT 14/03 A3008 RMK A01 T01400033  RH  048%=      5-min Rain = 0
KSE2 162329Z 16005KT 14/03 A3008 RMK A01 T01400033  RH  049%=      5-min Rain = 0
KSE2 162330Z 17004KT 14/03 A3008 RMK A01 T01390033  RH  049%=      5-min Rain = 0
KSE2 162331Z 16004KT 14/03 A3008 RMK A01 T01380033  RH  049%=      5-min Rain = 0
KSE2 162332Z 16005KT 14/03 A3008 RMK A01 T01380033  RH  049%=      5-min Rain = 0
KSE2 162333Z 16005KT 14/03 A3008 RMK A01 T01380033  RH  049%=      5-min Rain = 0
KSE2 162334Z 17006KT 14/03 A3008 RMK A01 T01370033  RH  049%=      5-min Rain = 0
KSE2 162335Z 16004KT 14/03 A3008 RMK A01 T01370032  RH  049%=      5-min Rain = 0
KSE2 162336Z 17005KT 14/03 A3008 RMK A01 T01370032  RH  049%=      5-min Rain = 0
KSE2 162337Z 17006KT 14/03 A3008 RMK A01 T01360033  RH  049%=      5-min Rain = 0
KSE2 162338Z 17005KT 14/03 A3008 RMK A01 T01360032  RH  049%=      5-min Rain = 0
KSE2 162339Z 17007KT 14/03 A3008 RMK A01 T01350032  RH  050%=      5-min Rain = 0
KSE2 162340Z 17007KT 14/03 A3008 RMK A01 T01360031  RH  049%=      5-min Rain = 0
KSE2 162341Z 17005KT 14/03 A3008 RMK A01 T01350031  RH  049%=      5-min Rain = 0
KSE2 162342Z 18005KT 14/03 A3008 RMK A01 T01350032  RH  050%=      5-min Rain = 0
KSE2 162343Z 18004KT 13/03 A3008 RMK A01 T01340032  RH  050%=      5-min Rain = 0
KSE2 162344Z 17005KT 13/03 A3008 RMK A01 T01340032  RH  050%=      5-min Rain = 0
KSE2 162345Z 18006KT 13/03 A3008 RMK A01 T01330032  RH  050%=      5-min Rain = 0
KSE2 162346Z 19005KT 13/03 A3008 RMK A01 T01330032  RH  050%=      5-min Rain = 0
KSE2 162347Z 18005KT 13/03 A3008 RMK A01 T01320031  RH  050%=      5-min Rain = 0
KSE2 162348Z 17005KT 13/03 A3008 RMK A01 T01320032  RH  051%=      5-min Rain = 0
KSE2 162349Z 18006KT 13/03 A3008 RMK A01 T01310031  RH  051%=      5-min Rain = 0
KSE2 162350Z 17005KT 13/03 A3008 RMK A01 T01310031  RH  051%=      5-min Rain = 0
KSE2 162351Z 18005KT 13/03 A3008 RMK A01 T01310031  RH  051%=      5-min Rain = 0
KSE2 162352Z 17005KT 13/03 A3008 RMK A01 T01310031  RH  051%=      5-min Rain = 0
KSE2 162353Z 17004KT 13/03 A3008 RMK A01 T01310031  RH  051%=      5-min Rain = 0
KSE2 162354Z 18005KT 13/03 A3008 RMK A01 T01300031  RH  051%=      5-min Rain = 0
KSE2 162355Z 18005KT 13/03 A3008 RMK A01 T01290031  RH  051%=      5-min Rain = 0
KSE2 162356Z 19005KT 13/03 A3008 RMK A01 T01290032  RH  051%=      5-min Rain = 0
KSE2 162357Z 18005KT 13/03 A3008 RMK A01 T01290032  RH  052%=      5-min Rain = 0
KSE2 162358Z 18005KT 13/03 A3008 RMK A01 T01280031  RH  052%=      5-min Rain = 0
KSE2 162359Z 19006KT 13/03 A3008 RMK A01 T01270031  RH  052%=      5-min Rain = 0
KSE2 170000Z 19005KT 13/03 A3009 RMK A01 T01270030  RH  052%=      5-min Rain = 0
KSE2 170001Z 18005KT 13/03 A3009 RMK A01 T01270031  RH  052%=      5-min Rain = 0
KSE2 170002Z 19005KT 13/03 A3009 RMK A01 T01270031  RH  052%=      5-min Rain = 0
KSE2 170003Z 18005KT 13/03 A3009 RMK A01 T01260031  RH  052%=      5-min Rain = 0
KSE2 170004Z 18004KT 13/03 A3009 RMK A01 T01260031  RH  052%=      5-min Rain = 0
KSE2 170005Z 18005KT 13/03 A3009 RMK A01 T01260030  RH  052%=      5-min Rain = 0
KSE2 170006Z 18006KT 13/03 A3009 RMK A01 T01250030  RH  052%=      5-min Rain = 0
KSE2 170007Z 18005KT 13/03 A3009 RMK A01 T01250030  RH  052%=      5-min Rain = 0
KSE2 170008Z 18005KT 13/03 A3009 RMK A01 T01250030  RH  052%=      5-min Rain = 0
KSE2 170009Z 17005KT 13/03 A3009 RMK A01 T01250030  RH  052%=      5-min Rain = 0
KSE2 170010Z 18005KT 13/03 A3009 RMK A01 T01250030  RH  052%=      5-min Rain = 0
KSE2 170011Z 17005KT 13/03 A3008 RMK A01 T01250029  RH  052%=      5-min Rain = 0
KSE2 170012Z 17005KT 12/03 A3008 RMK A01 T01240030  RH  052%=      5-min Rain = 0
KSE2 170013Z 16005KT 12/03 A3008 RMK A01 T01240029  RH  052%=      5-min Rain = 0
KSE2 170014Z 15005KT 12/03 A3008 RMK A01 T01230030  RH  053%=      5-min Rain = 0
KSE2 170015Z 14005KT 12/03 A3008 RMK A01 T01220030  RH  053%=      5-min Rain = 0
KSE2 170016Z 14005KT 12/03 A3008 RMK A01 T01210029  RH  053%=      5-min Rain = 0
KSE2 170017Z 15004KT 12/03 A3008 RMK A01 T01200029  RH  054%=      5-min Rain = 0
KSE2 170018Z 14004KT 12/03 A3008 RMK A01 T01200030  RH  054%=      5-min Rain = 0
KSE2 170019Z 14004KT 12/03 A3008 RMK A01 T01190030  RH  054%=      5-min Rain = 0
KSE2 170020Z 15004KT 12/03 A3008 RMK A01 T01190030  RH  055%=      5-min Rain = 0
KSE2 170021Z 14004KT 12/03 A3008 RMK A01 T01180031  RH  055%=      5-min Rain = 0
KSE2 170022Z 15004KT 12/03 A3008 RMK A01 T01180030  RH  055%=      5-min Rain = 0
KSE2 170023Z 15004KT 12/03 A3008 RMK A01 T01170031  RH  055%=      5-min Rain = 0
KSE2 170024Z 15004KT 12/03 A3008 RMK A01 T01160030  RH  056%=      5-min Rain = 0
KSE2 170025Z 15005KT 12/03 A3008 RMK A01 T01160030  RH  055%=      5-min Rain = 0
KSE2 170026Z 16005KT 12/03 A3008 RMK A01 T01160030  RH  056%=      5-min Rain = 0
KSE2 170027Z 16005KT 12/03 A3008 RMK A01 T01160030  RH  056%=      5-min Rain = 0
KSE2 170028Z 16005KT 12/03 A3008 RMK A01 T01160030  RH  056%=      5-min Rain = 0
KSE2 170029Z 16005KT 12/03 A3008 RMK A01 T01160030  RH  056%=      5-min Rain = 0
KSE2 170030Z 17005KT 12/03 A3008 RMK A01 T01150029  RH  055%=      5-min Rain = 0
KSE2 170031Z 17006KT 12/03 A3008 RMK A01 T01150028  RH  055%=      5-min Rain = 0
KSE2 170032Z 17006KT 12/03 A3008 RMK A01 T01150028  RH  055%=      5-min Rain = 0
KSE2 170033Z 16005KT 12/03 A3008 RMK A01 T01160028  RH  055%=      5-min Rain = 0
KSE2 170034Z 15006KT 12/03 A3008 RMK A01 T01160028  RH  055%=      5-min Rain = 0
KSE2 170035Z 15007KT 12/03 A3008 RMK A01 T01160028  RH  055%=      5-min Rain = 0
KSE2 170036Z 15007KT 12/03 A3008 RMK A01 T01160028  RH  055%=      5-min Rain = 0
KSE2 170037Z 15006KT 12/03 A3008 RMK A01 T01150029  RH  055%=      5-min Rain = 0
KSE2 170038Z 16006KT 11/03 A3008 RMK A01 T01140028  RH  055%=      5-min Rain = 0
KSE2 170039Z 16007KT 11/03 A3008 RMK A01 T01140027  RH  055%=      5-min Rain = 0
KSE2 170040Z 17006KT 11/03 A3008 RMK A01 T01140027  RH  055%=      5-min Rain = 0
KSE2 170041Z 17006G11KT 12/03 A3008 RMK A01 T01150027  RH  055%=      5-min Rain = 0
KSE2 170042Z 16006KT 12/03 A3008 RMK A01 T01150027  RH  055%=      5-min Rain = 0
KSE2 170043Z 16006KT 11/03 A3008 RMK A01 T01140027  RH  055%=      5-min Rain = 0
KSE2 170044Z 16006KT 11/03 A3008 RMK A01 T01140027  RH  055%=      5-min Rain = 0
KSE2 170045Z 17006KT 11/03 A3008 RMK A01 T01140026  RH  055%=      5-min Rain = 0
KSE2 170046Z 17005KT 11/03 A3008 RMK A01 T01140026  RH  055%=      5-min Rain = 0
KSE2 170047Z 16005KT 11/03 A3008 RMK A01 T01140026  RH  055%=      5-min Rain = 0
KSE2 170048Z 17005KT 11/03 A3008 RMK A01 T01140026  RH  055%=      5-min Rain = 0
KSE2 170049Z 17006KT 11/03 A3008 RMK A01 T01140026  RH  055%=      5-min Rain = 0
KSE2 170050Z 16007KT 11/03 A3008 RMK A01 T01140026  RH  055%=      5-min Rain = 0
KSE2 170051Z 16005KT 11/03 A3008 RMK A01 T01130026  RH  055%=      5-min Rain = 0
KSE2 170052Z 16005KT 11/03 A3008 RMK A01 T01130027  RH  055%=      5-min Rain = 0
KSE2 170053Z 16005KT 11/03 A3008 RMK A01 T01120026  RH  055%=      5-min Rain = 0
KSE2 170054Z 16006KT 11/03 A3008 RMK A01 T01120026  RH  056%=      5-min Rain = 0
KSE2 170055Z 16005KT 11/03 A3008 RMK A01 T01110026  RH  056%=      5-min Rain = 0
KSE2 170056Z 17006KT 11/03 A3008 RMK A01 T01110026  RH  056%=      5-min Rain = 0
KSE2 170057Z 18005KT 11/03 A3009 RMK A01 T01110026  RH  056%=      5-min Rain = 0
KSE2 170058Z 18005KT 11/03 A3009 RMK A01 T01110026  RH  056%=      5-min Rain = 0
KSE2 170059Z 18006KT 11/03 A3009 RMK A01 T01100025  RH  056%=      5-min Rain = 0
KSE2 170100Z 17005KT 11/03 A3009 RMK A01 T01100026  RH  056%=      5-min Rain = 0
KSE2 170101Z 18005KT 11/03 A3009 RMK A01 T01100026  RH  056%=      5-min Rain = 0
KSE2 170102Z 18004KT 11/03 A3009 RMK A01 T01100026  RH  056%=      5-min Rain = 0
KSE2 170103Z 18005KT 11/03 A3009 RMK A01 T01090026  RH  056%=      5-min Rain = 0
KSE2 170104Z 19006KT 11/03 A3009 RMK A01 T01090026  RH  057%=      5-min Rain = 0
KSE2 170105Z 19006KT 11/03 A3009 RMK A01 T01090026  RH  057%=      5-min Rain = 0
KSE2 170106Z 18006KT 11/03 A3009 RMK A01 T01080026  RH  057%=      5-min Rain = 0
KSE2 170107Z 18005KT 11/03 A3009 RMK A01 T01080026  RH  057%=      5-min Rain = 0
KSE2 170108Z 18005KT 11/03 A3009 RMK A01 T01070026  RH  057%=      5-min Rain = 0
KSE2 170109Z 19005KT 11/03 A3009 RMK A01 T01070026  RH  057%=      5-min Rain = 0
KSE2 170110Z 19005KT 11/03 A3009 RMK A01 T01060027  RH  058%=      5-min Rain = 0
KSE2 170111Z 20006KT 11/03 A3009 RMK A01 T01060026  RH  058%=      5-min Rain = 0
KSE2 170112Z 20006KT 11/03 A301 RMK A01 T01060026  RH  058%=      5-min Rain = 0
KSE2 170113Z 20005KT 11/03 A301 RMK A01 T01060026  RH  058%=      5-min Rain = 0
KSE2 170114Z 20006KT 11/03 A301 RMK A01 T01060026  RH  058%=      5-min Rain = 0
KSE2 170115Z 19006KT 11/03 A3009 RMK A01 T01050026  RH  058%=      5-min Rain = 0
KSE2 170116Z 19007KT 11/03 A3009 RMK A01 T01050026  RH  058%=      5-min Rain = 0
KSE2 170117Z 18006KT 11/03 A3009 RMK A01 T01050027  RH  058%=      5-min Rain = 0
KSE2 170118Z 19007KT 10/03 A3009 RMK A01 T01040027  RH  059%=      5-min Rain = 0
KSE2 170119Z 19006KT 10/03 A3009 RMK A01 T01040027  RH  059%=      5-min Rain = 0
KSE2 170120Z 19007KT 10/03 A3009 RMK A01 T01040026  RH  059%=      5-min Rain = 0
KSE2 170121Z 20006KT 10/03 A301 RMK A01 T01040027  RH  059%=      5-min Rain = 0
KSE2 170122Z 20007KT 10/03 A301 RMK A01 T01040026  RH  059%=      5-min Rain = 0
KSE2 170123Z 20006KT 10/03 A301 RMK A01 T01040027  RH  059%=      5-min Rain = 0
KSE2 170124Z 21006KT 10/03 A301 RMK A01 T01030027  RH  059%=      5-min Rain = 0
KSE2 170125Z 21005KT 10/03 A301 RMK A01 T01030026  RH  059%=      5-min Rain = 0
KSE2 170126Z 21006KT 10/03 A301 RMK A01 T01030026  RH  059%=      5-min Rain = 0
KSE2 170127Z 21005KT 10/03 A301 RMK A01 T01030027  RH  059%=      5-min Rain = 0
KSE2 170128Z 21006KT 10/03 A301 RMK A01 T01030027  RH  059%=      5-min Rain = 0
KSE2 170129Z 20006KT 10/03 A301 RMK A01 T01030027  RH  059%=      5-min Rain = 0
KSE2 170130Z 20006KT 10/03 A301 RMK A01 T01030026  RH  059%=      5-min Rain = 0
KSE2 170131Z 20006KT 10/03 A301 RMK A01 T01030026  RH  059%=      5-min Rain = 0
KSE2 170132Z 19007KT 10/03 A301 RMK A01 T01030025  RH  058%=      5-min Rain = 0
KSE2 170133Z 19006KT 10/03 A301 RMK A01 T01030026  RH  058%=      5-min Rain = 0
KSE2 170134Z 18006KT 10/03 A301 RMK A01 T01040026  RH  058%=      5-min Rain = 0
KSE2 170135Z 18007KT 10/03 A301 RMK A01 T01040026  RH  058%=      5-min Rain = 0
KSE2 170136Z 18005KT 10/03 A301 RMK A01 T01040025  RH  058%=      5-min Rain = 0
KSE2 170137Z 17005KT 10/03 A301 RMK A01 T01040026  RH  058%=      5-min Rain = 0
KSE2 170138Z 17006KT 10/03 A301 RMK A01 T01040026  RH  058%=      5-min Rain = 0
KSE2 170139Z 17005KT 10/03 A301 RMK A01 T01030025  RH  058%=      5-min Rain = 0
KSE2 170140Z 17005KT 10/03 A301 RMK A01 T01030026  RH  059%=      5-min Rain = 0
KSE2 170141Z 17005KT 10/03 A301 RMK A01 T01020025  RH  059%=      5-min Rain = 0
KSE2 170142Z 18004KT 10/03 A301 RMK A01 T01020025  RH  059%=      5-min Rain = 0
KSE2 170143Z 17004KT 10/03 A301 RMK A01 T01020025  RH  059%=      5-min Rain = 0
KSE2 170144Z 18005KT 10/03 A301 RMK A01 T01010025  RH  059%=      5-min Rain = 0
KSE2 170145Z 17005KT 10/03 A301 RMK A01 T01010025  RH  059%=      5-min Rain = 0
KSE2 170146Z 16006KT 10/03 A301 RMK A01 T01010025  RH  059%=      5-min Rain = 0
KSE2 170147Z 16006KT 10/03 A3009 RMK A01 T01010025  RH  059%=      5-min Rain = 0
KSE2 170148Z 16006KT 10/03 A3009 RMK A01 T01000025  RH  060%=      5-min Rain = 0
KSE2 170149Z 16006KT 10/03 A3009 RMK A01 T00990026  RH  060%=      5-min Rain = 0
KSE2 170150Z 16006KT 10/03 A3009 RMK A01 T00980025  RH  060%=      5-min Rain = 0
KSE2 170151Z 15006KT 10/03 A3009 RMK A01 T00980025  RH  061%=      5-min Rain = 0
KSE2 170152Z 16007KT 10/03 A3009 RMK A01 T00970025  RH  061%=      5-min Rain = 0
KSE2 170153Z 15007KT 10/03 A3009 RMK A01 T00970025  RH  061%=      5-min Rain = 0
KSE2 170154Z 16008KT 10/03 A3008 RMK A01 T00970025  RH  061%=      5-min Rain = 0
KSE2 170155Z 15007KT 10/03 A3008 RMK A01 T00970025  RH  061%=      5-min Rain = 0
KSE2 170156Z 16007KT 10/03 A3008 RMK A01 T00970025  RH  061%=      5-min Rain = 0
KSE2 170157Z 16007KT 10/03 A3008 RMK A01 T00960025  RH  061%=      5-min Rain = 0
KSE2 170158Z 16007KT 10/03 A3008 RMK A01 T00960025  RH  061%=      5-min Rain = 0
KSE2 170159Z 16007KT 10/03 A3008 RMK A01 T00950025  RH  061%=      5-min Rain = 0
KSE2 170200Z 17006KT 10/02 A3008 RMK A01 T00960024  RH  061%=      5-min Rain = 0
KSE2 170201Z 16006KT 10/02 A3009 RMK A01 T00960024  RH  061%=      5-min Rain = 0
KSE2 170202Z 17006KT 10/02 A3009 RMK A01 T00960024  RH  061%=      5-min Rain = 0
KSE2 170203Z 17006KT 10/02 A3009 RMK A01 T00960024  RH  061%=      5-min Rain = 0
KSE2 170204Z 16007KT 10/02 A3009 RMK A01 T00960024  RH  061%=      5-min Rain = 0
KSE2 170205Z 16006KT 10/02 A3009 RMK A01 T00960024  RH  061%=      5-min Rain = 0
KSE2 170206Z 16006KT 10/02 A3009 RMK A01 T00960024  RH  061%=      5-min Rain = 0
KSE2 170207Z 17006KT 10/02 A3009 RMK A01 T00960024  RH  061%=      5-min Rain = 0
KSE2 170208Z 16006KT 10/02 A3009 RMK A01 T00970024  RH  061%=      5-min Rain = 0
KSE2 170209Z 16006KT 10/02 A3009 RMK A01 T00970024  RH  060%=      5-min Rain = 0
KSE2 170210Z 16005KT 10/02 A3009 RMK A01 T00970024  RH  060%=      5-min Rain = 0
KSE2 170211Z 16005KT 10/02 A3009 RMK A01 T00970024  RH  060%=      5-min Rain = 0
KSE2 170212Z 16005KT 10/02 A3009 RMK A01 T00970024  RH  060%=      5-min Rain = 0
KSE2 170213Z 17006KT 10/02 A3009 RMK A01 T00970024  RH  060%=      5-min Rain = 0
KSE2 170214Z 17005KT 10/02 A3009 RMK A01 T00970024  RH  060%=      5-min Rain = 0
KSE2 170215Z 17006KT 10/02 A3009 RMK A01 T00970024  RH  061%=      5-min Rain = 0
KSE2 170216Z 17006KT 10/02 A3009 RMK A01 T00960024  RH  061%=      5-min Rain = 0
KSE2 170217Z 17006KT 10/02 A3009 RMK A01 T00960024  RH  061%=      5-min Rain = 0
KSE2 170218Z 17006KT 10/02 A3009 RMK A01 T00960024  RH  061%=      5-min Rain = 0
KSE2 170219Z 17005KT 10/02 A3009 RMK A01 T00960024  RH  061%=      5-min Rain = 0
KSE2 170220Z 17006KT 10/02 A3009 RMK A01 T00950024  RH  061%=      5-min Rain = 0
KSE2 170221Z 17006KT 10/02 A3009 RMK A01 T00950024  RH  061%=      5-min Rain = 0
KSE2 170222Z 18006KT 10/02 A3009 RMK A01 T00950024  RH  061%=      5-min Rain = 0
KSE2 170223Z 18006KT 10/02 A3009 RMK A01 T00950024  RH  061%=      5-min Rain = 0
KSE2 170224Z 18006KT 10/02 A3009 RMK A01 T00950024  RH  061%=      5-min Rain = 0
KSE2 170225Z 17006KT 10/02 A3009 RMK A01 T00950024  RH  061%=      5-min Rain = 0
KSE2 170226Z 17005KT 10/02 A3009 RMK A01 T00950024  RH  061%=      5-min Rain = 0
KSE2 170227Z 17005KT 10/02 A3009 RMK A01 T00950024  RH  061%=      5-min Rain = 0
KSE2 170228Z 17005KT 10/02 A3009 RMK A01 T00950024  RH  061%=      5-min Rain = 0
KSE2 170229Z 17005KT 10/02 A3009 RMK A01 T00950024  RH  061%=      5-min Rain = 0
KSE2 170230Z 18006KT 09/02 A3009 RMK A01 T00940024  RH  062%=      5-min Rain = 0
KSE2 170231Z 18005KT 09/02 A3009 RMK A01 T00940024  RH  062%=      5-min Rain = 0
KSE2 170232Z 18006KT 09/02 A3009 RMK A01 T00930024  RH  062%=      5-min Rain = 0
KSE2 170233Z 18006KT 09/02 A3009 RMK A01 T00930024  RH  062%=      5-min Rain = 0
KSE2 170234Z 18005KT 09/02 A3009 RMK A01 T00930024  RH  062%=      5-min Rain = 0
KSE2 170235Z 19006KT 09/02 A3009 RMK A01 T00920024  RH  062%=      5-min Rain = 0
KSE2 170236Z 19005KT 09/02 A3009 RMK A01 T00920024  RH  062%=      5-min Rain = 0
KSE2 170237Z 19005KT 09/02 A3009 RMK A01 T00920024  RH  063%=      5-min Rain = 0
KSE2 170238Z 19005KT 09/02 A3009 RMK A01 T00910024  RH  063%=      5-min Rain = 0
KSE2 170239Z 19005KT 09/02 A3009 RMK A01 T00910024  RH  063%=      5-min Rain = 0
KSE2 170240Z 18005KT 09/02 A3009 RMK A01 T00910024  RH  063%=      5-min Rain = 0
KSE2 170241Z 18005KT 09/03 A3009 RMK A01 T00910025  RH  063%=      5-min Rain = 0
KSE2 170242Z 18005KT 09/02 A3009 RMK A01 T00900024  RH  063%=      5-min Rain = 0
KSE2 170243Z 18005KT 09/02 A3009 RMK A01 T00910024  RH  063%=      5-min Rain = 0
KSE2 170244Z 18005KT 09/02 A3009 RMK A01 T00900024  RH  063%=      5-min Rain = 0
KSE2 170245Z 18004KT 09/02 A3009 RMK A01 T00900024  RH  064%=      5-min Rain = 0
KSE2 170246Z 18005KT 09/02 A3009 RMK A01 T00890024  RH  064%=      5-min Rain = 0
KSE2 170247Z 18005KT 09/02 A3009 RMK A01 T00890024  RH  064%=      5-min Rain = 0
KSE2 170248Z 19005KT 09/02 A3009 RMK A01 T00890024  RH  064%=      5-min Rain = 0
KSE2 170249Z 19005KT 09/02 A3009 RMK A01 T00890024  RH  064%=      5-min Rain = 0
KSE2 170250Z 18005KT 09/02 A3009 RMK A01 T00890024  RH  064%=      5-min Rain = 0
KSE2 170251Z 18006KT 09/02 A3009 RMK A01 T00880024  RH  064%=      5-min Rain = 0
KSE2 170252Z 18006KT 09/02 A3009 RMK A01 T00880024  RH  064%=      5-min Rain = 0
KSE2 170253Z 18005KT 09/02 A3009 RMK A01 T00880024  RH  064%=      5-min Rain = 0
KSE2 170254Z 18005KT 09/02 A3009 RMK A01 T00880024  RH  064%=      5-min Rain = 0
KSE2 170255Z 18006KT 09/02 A3009 RMK A01 T00880024  RH  064%=      5-min Rain = 0
KSE2 170256Z 18006KT 09/03 A3009 RMK A01 T00880025  RH  064%=      5-min Rain = 0
KSE2 170257Z 17005KT 09/02 A3009 RMK A01 T00880024  RH  064%=      5-min Rain = 0
KSE2 170258Z 17006KT 09/02 A3009 RMK A01 T00880024  RH  064%=      5-min Rain = 0
KSE2 170259Z 17006KT 09/02 A3009 RMK A01 T00880024  RH  064%=      5-min Rain = 0
KSE2 170300Z 17006KT 09/02 A3009 RMK A01 T00880024  RH  064%=      5-min Rain = 0
KSE2 170301Z 18006KT 09/02 A3009 RMK A01 T00880024  RH  064%=      5-min Rain = 0
KSE2 170302Z 18005KT 09/02 A3009 RMK A01 T00890024  RH  064%=      5-min Rain = 0
KSE2 170303Z 17006KT 09/02 A3009 RMK A01 T00880024  RH  064%=      5-min Rain = 0
KSE2 170304Z 18005KT 09/02 A3009 RMK A01 T00890024  RH  064%=      5-min Rain = 0
KSE2 170305Z 18005KT 09/02 A3009 RMK A01 T00890024  RH  064%=      5-min Rain = 0
KSE2 170306Z 18006KT 09/02 A3009 RMK A01 T00890024  RH  064%=      5-min Rain = 0
KSE2 170307Z 18005KT 09/02 A3009 RMK A01 T00890024  RH  064%=      5-min Rain = 0
KSE2 170308Z 18005KT 09/02 A3009 RMK A01 T00890024  RH  064%=      5-min Rain = 0
KSE2 170309Z 18006KT 09/02 A301 RMK A01 T00880023  RH  064%=      5-min Rain = 0
KSE2 170310Z 17006KT 09/02 A3009 RMK A01 T00880024  RH  064%=      5-min Rain = 0
KSE2 170311Z 17005KT 09/02 A3009 RMK A01 T00890024  RH  064%=      5-min Rain = 0
KSE2 170312Z 17005KT 09/02 A3009 RMK A01 T00880023  RH  064%=      5-min Rain = 0
KSE2 170313Z 17005KT 09/02 A3009 RMK A01 T00880024  RH  064%=      5-min Rain = 0
KSE2 170314Z 17006KT 09/02 A3009 RMK A01 T00880024  RH  064%=      5-min Rain = 0
KSE2 170315Z 17005KT 09/02 A3009 RMK A01 T00880024  RH  064%=      5-min Rain = 0
KSE2 170316Z 17006KT 09/02 A3009 RMK A01 T00870024  RH  064%=      5-min Rain = 0
KSE2 170317Z 17006KT 09/02 A3009 RMK A01 T00870024  RH  064%=      5-min Rain = 0
KSE2 170318Z 18006KT 09/02 A3009 RMK A01 T00870024  RH  064%=      5-min Rain = 0
KSE2 170319Z 18006KT 09/02 A3009 RMK A01 T00870024  RH  065%=      5-min Rain = 0
KSE2 170320Z 18006KT 09/02 A3009 RMK A01 T00870024  RH  065%=      5-min Rain = 0
KSE2 170321Z 17005KT 09/02 A3009 RMK A01 T00870024  RH  065%=      5-min Rain = 0
KSE2 170322Z 18005KT 09/02 A3009 RMK A01 T00870024  RH  065%=      5-min Rain = 0
KSE2 170323Z 18006KT 09/02 A3009 RMK A01 T00860024  RH  065%=      5-min Rain = 0
KSE2 170324Z 18005KT 09/02 A3009 RMK A01 T00860024  RH  065%=      5-min Rain = 0
KSE2 170325Z 18006KT 09/02 A3009 RMK A01 T00860024  RH  065%=      5-min Rain = 0
KSE2 170326Z 18005KT 09/02 A3009 RMK A01 T00850024  RH  065%=      5-min Rain = 0
KSE2 170327Z 17005KT 09/02 A3009 RMK A01 T00850024  RH  065%=      5-min Rain = 0
KSE2 170328Z 17006KT 09/02 A3009 RMK A01 T00850024  RH  065%=      5-min Rain = 0
KSE2 170329Z 17006KT 09/02 A3009 RMK A01 T00850024  RH  065%=      5-min Rain = 0
KSE2 170330Z 17006KT 09/02 A3009 RMK A01 T00850024  RH  065%=      5-min Rain = 0
KSE2 170331Z 17006KT 09/02 A3009 RMK A01 T00850024  RH  065%=      5-min Rain = 0
KSE2 170332Z 17007KT 09/02 A3009 RMK A01 T00850024  RH  065%=      5-min Rain = 0
KSE2 170333Z 17007KT 09/02 A3009 RMK A01 T00850024  RH  066%=      5-min Rain = 0
KSE2 170334Z 17007KT 09/02 A3009 RMK A01 T00850024  RH  066%=      5-min Rain = 0
KSE2 170335Z 18006KT 08/02 A3009 RMK A01 T00840024  RH  066%=      5-min Rain = 0
KSE2 170336Z 17006KT 08/02 A3009 RMK A01 T00840024  RH  066%=      5-min Rain = 0
KSE2 170337Z 17006KT 08/02 A3009 RMK A01 T00840023  RH  066%=      5-min Rain = 0
KSE2 170338Z 17007KT 08/02 A3009 RMK A01 T00830023  RH  066%=      5-min Rain = 0
KSE2 170339Z 17007KT 08/02 A3009 RMK A01 T00840024  RH  066%=      5-min Rain = 0
KSE2 170340Z 17007KT 08/02 A3008 RMK A01 T00840024  RH  066%=      5-min Rain = 0
KSE2 170341Z 16007KT 08/02 A3008 RMK A01 T00840024  RH  066%=      5-min Rain = 0
KSE2 170342Z 17007KT 08/02 A3008 RMK A01 T00830024  RH  066%=      5-min Rain = 0
KSE2 170343Z 17007KT 08/02 A3008 RMK A01 T00830024  RH  066%=      5-min Rain = 0
KSE2 170344Z 17007KT 08/02 A3008 RMK A01 T00830024  RH  066%=      5-min Rain = 0
KSE2 170345Z 17007KT 08/02 A3008 RMK A01 T00830024  RH  066%=      5-min Rain = 0
KSE2 170346Z 17006KT 08/02 A3008 RMK A01 T00830024  RH  066%=      5-min Rain = 0
KSE2 170347Z 17006KT 08/02 A3008 RMK A01 T00830024  RH  066%=      5-min Rain = 0
KSE2 170348Z 17007KT 08/02 A3008 RMK A01 T00830023  RH  066%=      5-min Rain = 0
KSE2 170349Z 17006KT 08/02 A3008 RMK A01 T00830023  RH  066%=      5-min Rain = 0
KSE2 170350Z 17007KT 08/02 A3008 RMK A01 T00830023  RH  066%=      5-min Rain = 0
KSE2 170351Z 17006KT 08/02 A3008 RMK A01 T00830024  RH  066%=      5-min Rain = 0
KSE2 170352Z 17007KT 08/02 A3008 RMK A01 T00820023  RH  067%=      5-min Rain = 0
KSE2 170353Z 17006KT 08/02 A3008 RMK A01 T00820023  RH  067%=      5-min Rain = 0
KSE2 170354Z 17006KT 08/02 A3008 RMK A01 T00810023  RH  067%=      5-min Rain = 0
KSE2 170355Z 16007KT 08/02 A3008 RMK A01 T00810023  RH  067%=      5-min Rain = 0
KSE2 170356Z 16006KT 08/02 A3008 RMK A01 T00810023  RH  067%=      5-min Rain = 0
KSE2 170357Z 17006KT 08/02 A3008 RMK A01 T00810023  RH  067%=      5-min Rain = 0
KSE2 170358Z 17006KT 08/02 A3008 RMK A01 T00800023  RH  067%=      5-min Rain = 0
KSE2 170359Z 17006KT 08/02 A3008 RMK A01 T00800023  RH  067%=      5-min Rain = 0
KSE2 170400Z 17006KT 08/02 A3008 RMK A01 T00790023  RH  067%=      5-min Rain = 0
KSE2 170401Z 17006KT 08/02 A3008 RMK A01 T00790023  RH  068%=      5-min Rain = 0
KSE2 170402Z 17006KT 08/02 A3008 RMK A01 T00790023  RH  068%=      5-min Rain = 0
KSE2 170403Z 16006KT 08/02 A3008 RMK A01 T00780023  RH  068%=      5-min Rain = 0
KSE2 170404Z 17007KT 08/02 A3008 RMK A01 T00790023  RH  068%=      5-min Rain = 0
KSE2 170405Z 17006KT 08/02 A3008 RMK A01 T00780023  RH  068%=      5-min Rain = 0
KSE2 170406Z 17007KT 08/02 A3008 RMK A01 T00780023  RH  068%=      5-min Rain = 0
KSE2 170407Z 16006KT 08/02 A3008 RMK A01 T00780023  RH  068%=      5-min Rain = 0
KSE2 170408Z 17006KT 08/02 A3008 RMK A01 T00780023  RH  068%=      5-min Rain = 0
KSE2 170409Z 17006KT 08/02 A3008 RMK A01 T00780023  RH  068%=      5-min Rain = 0
KSE2 170410Z 17007KT 08/02 A3008 RMK A01 T00780023  RH  068%=      5-min Rain = 0
KSE2 170411Z 17006KT 08/02 A3008 RMK A01 T00790023  RH  068%=      5-min Rain = 0
KSE2 170412Z 17006KT 08/02 A3008 RMK A01 T00790023  RH  068%=      5-min Rain = 0
KSE2 170413Z 17006KT 08/02 A3008 RMK A01 T00790023  RH  068%=      5-min Rain = 0
KSE2 170414Z 17007KT 08/02 A3008 RMK A01 T00790023  RH  068%=      5-min Rain = 0
KSE2 170415Z 17006KT 08/02 A3008 RMK A01 T00790023  RH  068%=      5-min Rain = 0
KSE2 170416Z 17006KT 08/02 A3008 RMK A01 T00790023  RH  068%=      5-min Rain = 0
KSE2 170417Z 17006KT 08/02 A3008 RMK A01 T00790023  RH  068%=      5-min Rain = 0
KSE2 170418Z 17005KT 08/02 A3008 RMK A01 T00790023  RH  068%=      5-min Rain = 0
KSE2 170419Z 17005KT 08/02 A3008 RMK A01 T00780023  RH  068%=      5-min Rain = 0
KSE2 170420Z 17005KT 08/02 A3008 RMK A01 T00780023  RH  068%=      5-min Rain = 0
KSE2 170421Z 17006KT 08/02 A3008 RMK A01 T00770023  RH  068%=      5-min Rain = 0
KSE2 170422Z 17005KT 08/02 A3008 RMK A01 T00770023  RH  069%=      5-min Rain = 0
KSE2 170423Z 17005KT 08/02 A3008 RMK A01 T00770023  RH  069%=      5-min Rain = 0
KSE2 170424Z 17005KT 08/02 A3008 RMK A01 T00760022  RH  069%=      5-min Rain = 0
KSE2 170425Z 16005KT 08/02 A3008 RMK A01 T00760023  RH  069%=      5-min Rain = 0
KSE2 170426Z 16006KT 08/02 A3008 RMK A01 T00750023  RH  069%=      5-min Rain = 0
KSE2 170427Z 16005KT 08/02 A3007 RMK A01 T00750022  RH  069%=      5-min Rain = 0
KSE2 170428Z 15005KT 07/02 A3007 RMK A01 T00740023  RH  070%=      5-min Rain = 0
KSE2 170429Z 15006KT 07/02 A3007 RMK A01 T00730023  RH  070%=      5-min Rain = 0
KSE2 170430Z 15006KT 07/02 A3007 RMK A01 T00720023  RH  071%=      5-min Rain = 0
KSE2 170431Z 15006KT 07/02 A3007 RMK A01 T00720023  RH  071%=      5-min Rain = 0
KSE2 170432Z 16006KT 07/02 A3007 RMK A01 T00720023  RH  071%=      5-min Rain = 0
KSE2 170433Z 16006KT 07/02 A3007 RMK A01 T00720023  RH  071%=      5-min Rain = 0
KSE2 170434Z 16006KT 07/02 A3007 RMK A01 T00720023  RH  071%=      5-min Rain = 0
KSE2 170435Z 16005KT 07/02 A3007 RMK A01 T00720023  RH  071%=      5-min Rain = 0
KSE2 170436Z 17005KT 07/02 A3007 RMK A01 T00730023  RH  070%=      5-min Rain = 0
KSE2 170437Z 16005KT 07/02 A3007 RMK A01 T00730023  RH  071%=      5-min Rain = 0
KSE2 170438Z 17005KT 07/02 A3007 RMK A01 T00730023  RH  071%=      5-min Rain = 0
KSE2 170439Z 17005KT 07/02 A3007 RMK A01 T00730023  RH  070%=      5-min Rain = 0
KSE2 170440Z 17005KT 07/02 A3007 RMK A01 T00730022  RH  070%=      5-min Rain = 0
KSE2 170441Z 18005KT 07/02 A3007 RMK A01 T00730022  RH  070%=      5-min Rain = 0
KSE2 170442Z 17006KT 07/02 A3007 RMK A01 T00730022  RH  070%=      5-min Rain = 0
KSE2 170443Z 17005KT 07/02 A3007 RMK A01 T00740022  RH  070%=      5-min Rain = 0
KSE2 170444Z 17006KT 07/02 A3007 RMK A01 T00740022  RH  070%=      5-min Rain = 0
KSE2 170445Z 17006KT 07/02 A3007 RMK A01 T00740022  RH  070%=      5-min Rain = 0
KSE2 170446Z 16007KT 07/02 A3007 RMK A01 T00740022  RH  070%=      5-min Rain = 0
KSE2 170447Z 17006KT 08/02 A3007 RMK A01 T00750023  RH  070%=      5-min Rain = 0
KSE2 170448Z 16006KT 07/02 A3007 RMK A01 T00740022  RH  070%=      5-min Rain = 0
KSE2 170449Z 17006KT 08/02 A3007 RMK A01 T00750023  RH  070%=      5-min Rain = 0
KSE2 170450Z 17006KT 07/02 A3007 RMK A01 T00740023  RH  070%=      5-min Rain = 0
KSE2 170451Z 17006KT 07/02 A3007 RMK A01 T00740022  RH  070%=      5-min Rain = 0
KSE2 170452Z 17006KT 07/02 A3007 RMK A01 T00740022  RH  070%=      5-min Rain = 0
KSE2 170453Z 17006KT 07/02 A3007 RMK A01 T00740022  RH  070%=      5-min Rain = 0
KSE2 170454Z 16006KT 07/02 A3007 RMK A01 T00740022  RH  070%=      5-min Rain = 0
KSE2 170455Z 17006KT 07/02 A3007 RMK A01 T00740022  RH  070%=      5-min Rain = 0
KSE2 170456Z 17006KT 07/02 A3007 RMK A01 T00740022  RH  070%=      5-min Rain = 0
KSE2 170457Z 17006KT 07/02 A3007 RMK A01 T00740022  RH  070%=      5-min Rain = 0
KSE2 170458Z 17006KT 07/02 A3007 RMK A01 T00740022  RH  070%=      5-min Rain = 0
KSE2 170459Z 17006KT 07/02 A3007 RMK A01 T00740023  RH  070%=      5-min Rain = 0
KSE2 170500Z 17006KT 07/02 A3007 RMK A01 T00740022  RH  070%=      5-min Rain = 0
KSE2 170501Z 17006KT 07/02 A3007 RMK A01 T00740022  RH  070%=      5-min Rain = 0
KSE2 170502Z 17006KT 07/02 A3007 RMK A01 T00740022  RH  070%=      5-min Rain = 0
KSE2 170503Z 17005KT 07/02 A3007 RMK A01 T00740022  RH  070%=      5-min Rain = 0
KSE2 170504Z 17006KT 07/02 A3007 RMK A01 T00740022  RH  070%=      5-min Rain = 0
KSE2 170505Z 17005KT 07/02 A3007 RMK A01 T00740023  RH  070%=      5-min Rain = 0
KSE2 170506Z 16007KT 07/02 A3007 RMK A01 T00740022  RH  070%=      5-min Rain = 0
KSE2 170507Z 16006KT 07/02 A3006 RMK A01 T00740022  RH  070%=      5-min Rain = 0
KSE2 170508Z 17006KT 07/02 A3006 RMK A01 T00740022  RH  070%=      5-min Rain = 0
KSE2 170509Z 17007KT 07/02 A3006 RMK A01 T00740022  RH  070%=      5-min Rain = 0
KSE2 170510Z 17007KT 07/02 A3006 RMK A01 T00740022  RH  070%=      5-min Rain = 0
KSE2 170511Z 17006KT 07/02 A3006 RMK A01 T00740022  RH  070%=      5-min Rain = 0
KSE2 170512Z 17006KT 07/02 A3006 RMK A01 T00740022  RH  070%=      5-min Rain = 0
KSE2 170513Z 17006KT 07/02 A3006 RMK A01 T00740022  RH  070%=      5-min Rain = 0
KSE2 170514Z 17006KT 07/02 A3006 RMK A01 T00740022  RH  070%=      5-min Rain = 0
KSE2 170515Z 17007KT 07/02 A3006 RMK A01 T00740022  RH  070%=      5-min Rain = 0
KSE2 170516Z 17007KT 07/02 A3006 RMK A01 T00740022  RH  070%=      5-min Rain = 0
KSE2 170517Z 17007KT 08/02 A3006 RMK A01 T00750023  RH  069%=      5-min Rain = 0
KSE2 170518Z 18007KT 08/02 A3006 RMK A01 T00750022  RH  069%=      5-min Rain = 0
KSE2 170519Z 17007KT 08/02 A3006 RMK A01 T00760023  RH  069%=      5-min Rain = 0
KSE2 170520Z 17006KT 08/02 A3006 RMK A01 T00760023  RH  069%=      5-min Rain = 0
KSE2 170521Z 17006KT 08/02 A3006 RMK A01 T00760023  RH  069%=      5-min Rain = 0
KSE2 170522Z 17007KT 08/02 A3006 RMK A01 T00760023  RH  069%=      5-min Rain = 0
KSE2 170523Z 17007KT 08/02 A3006 RMK A01 T00760022  RH  069%=      5-min Rain = 0
KSE2 170524Z 17006KT 08/02 A3006 RMK A01 T00760022  RH  069%=      5-min Rain = 0
KSE2 170525Z 17007KT 08/02 A3006 RMK A01 T00760022  RH  069%=      5-min Rain = 0
KSE2 170526Z 17007KT 08/02 A3006 RMK A01 T00770022  RH  068%=      5-min Rain = 0
KSE2 170527Z 17007KT 08/02 A3006 RMK A01 T00770022  RH  068%=      5-min Rain = 0
KSE2 170528Z 17005KT 08/02 A3006 RMK A01 T00760022  RH  069%=      5-min Rain = 0
KSE2 170529Z 17007KT 08/02 A3006 RMK A01 T00760022  RH  069%=      5-min Rain = 0
KSE2 170530Z 17006KT 08/02 A3006 RMK A01 T00760022  RH  069%=      5-min Rain = 0
KSE2 170531Z 17007KT 08/02 A3006 RMK A01 T00750022  RH  069%=      5-min Rain = 0
KSE2 170532Z 17006KT 08/02 A3006 RMK A01 T00750022  RH  069%=      5-min Rain = 0
KSE2 170533Z 18006KT 08/02 A3006 RMK A01 T00750022  RH  069%=      5-min Rain = 0
KSE2 170534Z 18006KT 08/02 A3006 RMK A01 T00750022  RH  069%=      5-min Rain = 0
KSE2 170535Z 17006KT 08/02 A3006 RMK A01 T00750022  RH  069%=      5-min Rain = 0
KSE2 170536Z 17005KT 07/02 A3006 RMK A01 T00740022  RH  069%=      5-min Rain = 0
KSE2 170537Z 17006KT 07/02 A3006 RMK A01 T00740022  RH  069%=      5-min Rain = 0
KSE2 170538Z 18007KT 07/02 A3006 RMK A01 T00740022  RH  069%=      5-min Rain = 0
KSE2 170539Z 18007KT 08/02 A3006 RMK A01 T00750022  RH  069%=      5-min Rain = 0
KSE2 170540Z 18006KT 07/02 A3006 RMK A01 T00740022  RH  069%=      5-min Rain = 0
KSE2 170541Z 17007KT 07/02 A3006 RMK A01 T00740022  RH  069%=      5-min Rain = 0
KSE2 170542Z 17007KT 07/02 A3006 RMK A01 T00740022  RH  069%=      5-min Rain = 0
KSE2 170543Z 17006KT 07/02 A3005 RMK A01 T00740022  RH  069%=      5-min Rain = 0
KSE2 170544Z 17006KT 07/02 A3005 RMK A01 T00740021  RH  069%=      5-min Rain = 0
KSE2 170545Z 17006KT 07/02 A3005 RMK A01 T00740022  RH  069%=      5-min Rain = 0
KSE2 170546Z 17007KT 07/02 A3005 RMK A01 T00740021  RH  069%=      5-min Rain = 0
KSE2 170547Z 17006KT 07/02 A3005 RMK A01 T00740022  RH  069%=      5-min Rain = 0
KSE2 170548Z 17006KT 07/02 A3005 RMK A01 T00740021  RH  069%=      5-min Rain = 0
KSE2 170549Z 17006KT 07/02 A3005 RMK A01 T00740022  RH  069%=      5-min Rain = 0
KSE2 170550Z 17005KT 07/02 A3005 RMK A01 T00730021  RH  070%=      5-min Rain = 0
KSE2 170551Z 17006KT 07/02 A3005 RMK A01 T00730021  RH  070%=      5-min Rain = 0
KSE2 170552Z 17007KT 07/02 A3005 RMK A01 T00730021  RH  070%=      5-min Rain = 0
KSE2 170553Z 17006KT 07/02 A3005 RMK A01 T00730021  RH  070%=      5-min Rain = 0
KSE2 170554Z 17006KT 07/02 A3005 RMK A01 T00730021  RH  070%=      5-min Rain = 0
KSE2 170555Z 17006KT 07/02 A3005 RMK A01 T00730021  RH  070%=      5-min Rain = 0
KSE2 170556Z 18006KT 07/02 A3005 RMK A01 T00720021  RH  070%=      5-min Rain = 0
KSE2 170557Z 17007KT 07/02 A3005 RMK A01 T00720021  RH  070%=      5-min Rain = 0
KSE2 170558Z 18006KT 07/02 A3005 RMK A01 T00720021  RH  070%=      5-min Rain = 0
KSE2 170559Z 17006KT 07/02 A3005 RMK A01 T00720021  RH  070%=      5-min Rain = 0

Page generated in 0.1213 seconds.